Time,TemperatureF,DewpointF,PressureIn,WindDirection,WindDirectionDegrees,WindSpeedMPH,WindSpeedGustMPH,Humidity,HourlyPrecipIn,Conditions,Clouds,dailyrainin,SoftwareType,DateUTC
2013-02-21 00:00:00,26.1,12.5,30.07,NW,304,11.0,12.0,56,0.00,,,0.00,Wunderground v.1.15,2013-02-21 05:00:00,
2013-02-21 00:01:00,26.0,12.4,30.07,NNW,327,12.0,12.0,56,0.00,,,0.00,Wunderground v.1.15,2013-02-21 05:01:00,
2013-02-21 00:04:00,26.0,12.4,30.07,WNW,302,16.0,16.0,56,0.00,,,0.00,Wunderground v.1.15,2013-02-21 05:04:00,
2013-02-21 00:08:00,26.0,12.4,30.08,WNW,287,9.0,16.0,56,0.00,,,0.00,Wunderground v.1.15,2013-02-21 05:08:00,
2013-02-21 00:09:00,26.0,12.8,30.08,WNW,303,14.0,16.0,57,0.00,,,0.00,Wunderground v.1.15,2013-02-21 05:09:00,
2013-02-21 00:11:00,26.0,12.8,30.08,NNW,328,12.0,12.0,57,0.00,,,0.00,Wunderground v.1.15,2013-02-21 05:11:00,
2013-02-21 00:14:00,25.9,12.7,30.08,WNW,290,10.0,14.0,57,0.00,,,0.00,Wunderground v.1.15,2013-02-21 05:14:00,
2013-02-21 00:16:00,25.9,12.7,30.08,NW,304,12.0,14.0,57,0.00,,,0.00,Wunderground v.1.15,2013-02-21 05:16:00,
2013-02-21 00:18:00,25.9,12.7,30.08,WNW,300,9.0,14.0,57,0.00,,,0.00,Wunderground v.1.15,2013-02-21 05:18:00,
2013-02-21 00:21:00,25.8,12.6,30.08,WNW,290,10.0,11.0,57,0.00,,,0.00,Wunderground v.1.15,2013-02-21 05:21:00,
2013-02-21 00:23:00,25.8,12.6,30.08,WNW,291,9.0,11.0,57,0.00,,,0.00,Wunderground v.1.15,2013-02-21 05:23:00,
2013-02-21 00:24:00,25.8,12.6,30.08,WNW,296,7.0,11.0,57,0.00,,,0.00,Wunderground v.1.15,2013-02-21 05:24:00,
2013-02-21 00:28:00,25.7,12.6,30.08,NW,306,9.0,13.0,57,0.00,,,0.00,Wunderground v.1.15,2013-02-21 05:28:00,
2013-02-21 00:29:00,25.6,12.9,30.08,NW,326,11.0,13.0,58,0.00,,,0.00,Wunderground v.1.15,2013-02-21 05:29:00,
2013-02-21 00:30:00,25.6,12.9,30.08,WNW,302,8.0,10.0,58,0.00,,,0.00,Wunderground v.1.15,2013-02-21 05:30:00,
2013-02-21 00:33:00,25.5,12.8,30.08,WNW,289,9.0,12.0,58,0.00,,,0.00,Wunderground v.1.15,2013-02-21 05:33:00,
2013-02-21 00:36:00,25.4,12.7,30.08,West,279,10.0,12.0,58,0.00,,,0.00,Wunderground v.1.15,2013-02-21 05:36:00,
2013-02-21 00:39:00,25.4,12.7,30.08,WNW,300,5.0,12.0,58,0.00,,,0.00,Wunderground v.1.15,2013-02-21 05:39:00,
2013-02-21 00:42:00,25.3,12.6,30.08,WNW,288,8.0,12.0,58,0.00,,,0.00,Wunderground v.1.15,2013-02-21 05:42:00,
2013-02-21 00:43:00,25.3,12.6,30.08,WNW,294,6.0,12.0,58,0.00,,,0.00,Wunderground v.1.15,2013-02-21 05:43:00,
2013-02-21 00:44:00,25.2,12.0,30.08,NNW,343,6.0,18.0,58,0.00,,,0.00,weatherlink.com 1.10,2013-02-21 05:44:00,
2013-02-21 00:46:00,25.2,12.5,30.08,WNW,290,9.0,12.0,58,0.00,,,0.00,Wunderground v.1.15,2013-02-21 05:46:00,
2013-02-21 00:48:00,25.2,12.5,30.08,NW,311,7.0,12.0,58,0.00,,,0.00,Wunderground v.1.15,2013-02-21 05:48:00,
2013-02-21 00:49:00,25.2,12.5,30.08,WNW,298,9.0,12.0,58,0.00,,,0.00,Wunderground v.1.15,2013-02-21 05:49:00,
2013-02-21 00:53:00,25.1,12.4,30.08,WNW,296,9.0,15.0,58,0.00,,,0.00,Wunderground v.1.15,2013-02-21 05:53:00,
2013-02-21 00:55:00,25.1,12.4,30.08,WNW,301,8.0,15.0,58,0.00,,,0.00,Wunderground v.1.15,2013-02-21 05:55:00,
2013-02-21 00:59:00,25.0,12.7,30.08,NW,307,8.0,15.0,59,0.00,,,0.00,Wunderground v.1.15,2013-02-21 05:59:00,
2013-02-21 01:00:00,24.9,12.6,30.08,NNW,335,10.0,10.0,59,0.00,,,0.00,Wunderground v.1.15,2013-02-21 06:00:00,
2013-02-21 01:02:00,24.9,12.6,30.08,NW,308,4.0,10.0,59,0.00,,,0.00,Wunderground v.1.15,2013-02-21 06:02:00,
2013-02-21 01:04:00,24.9,12.6,30.08,WNW,283,8.0,10.0,59,0.00,,,0.00,Wunderground v.1.15,2013-02-21 06:04:00,
2013-02-21 01:06:00,24.8,12.5,30.08,WNW,295,8.0,10.0,59,0.00,,,0.00,Wunderground v.1.15,2013-02-21 06:06:00,
2013-02-21 01:07:00,24.8,12.5,30.08,WNW,290,9.0,10.0,59,0.00,,,0.00,Wunderground v.1.15,2013-02-21 06:07:00,
2013-02-21 01:09:00,24.8,12.5,30.08,NW,317,7.0,10.0,59,0.00,,,0.00,Wunderground v.1.15,2013-02-21 06:09:00,
2013-02-21 01:12:00,24.8,12.5,30.08,NNE,14,7.0,9.0,59,0.00,,,0.00,Wunderground v.1.15,2013-02-21 06:12:00,
2013-02-21 01:14:00,24.8,12.0,30.08,NW,304,6.0,14.0,59,0.00,,,0.00,weatherlink.com 1.10,2013-02-21 06:14:00,
2013-02-21 01:15:00,24.8,12.5,30.08,WNW,283,9.0,13.0,59,0.00,,,0.00,Wunderground v.1.15,2013-02-21 06:15:00,
2013-02-21 01:19:00,24.8,12.5,30.08,NNW,328,12.0,13.0,59,0.00,,,0.00,Wunderground v.1.15,2013-02-21 06:19:00,
2013-02-21 01:22:00,24.7,12.4,30.08,WNW,298,10.0,17.0,59,0.00,,,0.00,Wunderground v.1.15,2013-02-21 06:22:00,
2013-02-21 01:25:00,24.7,12.4,30.07,WNW,299,12.0,17.0,59,0.00,,,0.00,Wunderground v.1.15,2013-02-21 06:25:00,
2013-02-21 01:28:00,24.7,12.4,30.08,WNW,294,9.0,17.0,59,0.00,,,0.00,Wunderground v.1.15,2013-02-21 06:28:00,
2013-02-21 01:29:00,24.7,12.8,30.08,WNW,303,14.0,17.0,60,0.00,,,0.00,Wunderground v.1.15,2013-02-21 06:29:00,
2013-02-21 01:30:00,24.7,12.4,30.08,WNW,300,9.0,10.0,59,0.00,,,0.00,Wunderground v.1.15,2013-02-21 06:30:00,
2013-02-21 01:32:00,24.6,12.7,30.08,WNW,296,9.0,12.0,60,0.00,,,0.00,Wunderground v.1.15,2013-02-21 06:32:00,
2013-02-21 01:35:00,24.6,12.7,30.08,NW,306,8.0,12.0,60,0.00,,,0.00,Wunderground v.1.15,2013-02-21 06:35:00,
2013-02-21 01:37:00,24.6,12.7,30.07,North,9,6.0,12.0,60,0.00,,,0.00,Wunderground v.1.15,2013-02-21 06:37:00,
2013-02-21 01:38:00,24.6,12.7,30.07,WNW,288,11.0,12.0,60,0.00,,,0.00,Wunderground v.1.15,2013-02-21 06:38:00,
2013-02-21 01:39:00,24.6,12.7,30.08,North,9,8.0,12.0,60,0.00,,,0.00,Wunderground v.1.15,2013-02-21 06:39:00,
2013-02-21 01:42:00,24.5,12.6,30.07,WNW,302,12.0,14.0,60,0.00,,,0.00,Wunderground v.1.15,2013-02-21 06:42:00,
2013-02-21 01:43:00,24.5,12.6,30.07,WNW,292,9.0,14.0,60,0.00,,,0.00,Wunderground v.1.15,2013-02-21 06:43:00,
2013-02-21 01:44:00,24.5,12.6,30.07,NW,321,12.0,14.0,60,0.00,,,0.00,Wunderground v.1.15,2013-02-21 06:44:00,
2013-02-21 01:45:00,24.5,12.6,30.07,NNW,347,9.0,14.0,60,0.00,,,0.00,Wunderground v.1.15,2013-02-21 06:45:00,
2013-02-21 01:49:00,24.5,12.6,30.07,North,355,10.0,14.0,60,0.00,,,0.00,Wunderground v.1.15,2013-02-21 06:49:00,
2013-02-21 01:50:00,24.5,12.6,30.07,WNW,286,13.0,13.0,60,0.00,,,0.00,Wunderground v.1.15,2013-02-21 06:50:00,
2013-02-21 01:51:00,24.5,12.6,30.07,WNW,300,19.0,19.0,60,0.00,,,0.00,Wunderground v.1.15,2013-02-21 06:51:00,
2013-02-21 01:54:00,24.4,12.5,30.07,NNW,327,9.0,19.0,60,0.00,,,0.00,Wunderground v.1.15,2013-02-21 06:54:00,
2013-02-21 01:55:00,24.4,12.5,30.07,WNW,298,13.0,19.0,60,0.00,,,0.00,Wunderground v.1.15,2013-02-21 06:55:00,
2013-02-21 01:56:00,24.4,12.5,30.07,WNW,300,8.0,19.0,60,0.00,,,0.00,Wunderground v.1.15,2013-02-21 06:56:00,
2013-02-21 01:59:00,24.3,12.4,30.07,WNW,301,11.0,19.0,60,0.00,,,0.00,Wunderground v.1.15,2013-02-21 06:59:00,
2013-02-21 02:00:00,24.3,12.4,30.07,WNW,300,8.0,11.0,60,0.00,,,0.00,Wunderground v.1.15,2013-02-21 07:00:00,
2013-02-21 02:01:00,24.3,12.0,30.07,NNW,328,10.0,13.0,61,0.00,,,0.00,weatherlink.com 1.10,2013-02-21 07:01:00,
2013-02-21 02:04:00,24.3,12.8,30.07,WNW,303,8.0,14.0,61,0.00,,,0.00,Wunderground v.1.15,2013-02-21 07:04:00,
2013-02-21 02:05:00,24.2,12.7,30.07,NW,314,9.0,14.0,61,0.00,,,0.00,Wunderground v.1.15,2013-02-21 07:05:00,
2013-02-21 02:06:00,24.3,12.8,30.08,NNW,329,11.0,14.0,61,0.00,,,0.00,Wunderground v.1.15,2013-02-21 07:06:00,
2013-02-21 02:09:00,24.2,12.7,30.07,NW,305,15.0,15.0,61,0.00,,,0.00,Wunderground v.1.15,2013-02-21 07:09:00,
2013-02-21 02:11:00,24.2,12.7,30.08,WNW,286,8.0,16.0,61,0.00,,,0.00,Wunderground v.1.15,2013-02-21 07:11:00,
2013-02-21 02:15:00,24.2,12.7,30.08,NW,323,10.0,17.0,61,0.00,,,0.00,Wunderground v.1.15,2013-02-21 07:15:00,
2013-02-21 02:16:00,24.2,12.7,30.08,WNW,302,14.0,17.0,61,0.00,,,0.00,Wunderground v.1.15,2013-02-21 07:16:00,
2013-02-21 02:17:00,24.3,12.8,30.08,NW,310,14.0,17.0,61,0.00,,,0.00,Wunderground v.1.15,2013-02-21 07:17:00,
2013-02-21 02:20:00,24.3,12.8,30.08,WNW,298,11.0,12.0,61,0.00,,,0.00,Wunderground v.1.15,2013-02-21 07:20:00,
2013-02-21 02:22:00,24.3,12.8,30.08,NW,305,5.0,12.0,61,0.00,,,0.00,Wunderground v.1.15,2013-02-21 07:22:00,
2013-02-21 02:23:00,24.3,12.8,30.08,NW,309,4.0,13.0,61,0.00,,,0.00,Wunderground v.1.15,2013-02-21 07:23:00,
2013-02-21 02:25:00,24.2,12.7,30.08,NW,324,7.0,14.0,61,0.00,,,0.00,Wunderground v.1.15,2013-02-21 07:25:00,
2013-02-21 02:27:00,24.2,12.7,30.08,WNW,283,8.0,14.0,61,0.00,,,0.00,Wunderground v.1.15,2013-02-21 07:27:00,
2013-02-21 02:28:00,24.2,12.7,30.08,NW,325,8.0,14.0,61,0.00,,,0.00,Wunderground v.1.15,2013-02-21 07:28:00,
2013-02-21 02:31:00,24.2,12.7,30.08,NW,305,9.0,15.0,61,0.00,,,0.00,Wunderground v.1.15,2013-02-21 07:31:00,
2013-02-21 02:32:00,24.2,12.7,30.08,NW,315,12.0,17.0,61,0.00,,,0.00,Wunderground v.1.15,2013-02-21 07:32:00,
2013-02-21 02:34:00,24.2,12.7,30.08,WNW,298,7.0,17.0,61,0.00,,,0.00,Wunderground v.1.15,2013-02-21 07:34:00,
2013-02-21 02:36:00,24.2,12.7,30.08,WNW,296,16.0,17.0,61,0.00,,,0.00,Wunderground v.1.15,2013-02-21 07:36:00,
2013-02-21 02:37:00,24.2,12.7,30.08,NW,313,9.0,19.0,61,0.00,,,0.00,Wunderground v.1.15,2013-02-21 07:37:00,
2013-02-21 02:39:00,24.2,12.7,30.08,NW,326,8.0,19.0,61,0.00,,,0.00,Wunderground v.1.15,2013-02-21 07:39:00,
2013-02-21 02:41:00,24.2,12.7,30.08,NW,311,10.0,17.0,61,0.00,,,0.00,Wunderground v.1.15,2013-02-21 07:41:00,
2013-02-21 02:42:00,24.2,12.7,30.08,WNW,290,8.0,17.0,61,0.00,,,0.00,Wunderground v.1.15,2013-02-21 07:42:00,
2013-02-21 02:44:00,24.1,12.6,30.08,NNW,336,10.0,17.0,61,0.00,,,0.00,Wunderground v.1.15,2013-02-21 07:44:00,
2013-02-21 02:46:00,24.1,12.6,30.08,NW,319,8.0,17.0,61,0.00,,,0.00,Wunderground v.1.15,2013-02-21 07:46:00,
2013-02-21 02:47:00,24.1,12.6,30.08,WNW,291,14.0,18.0,61,0.00,,,0.00,Wunderground v.1.15,2013-02-21 07:47:00,
2013-02-21 02:49:00,24.1,12.6,30.08,NNW,338,15.0,18.0,61,0.00,,,0.00,Wunderground v.1.15,2013-02-21 07:49:00,
2013-02-21 02:52:00,24.1,12.6,30.08,NW,310,7.0,15.0,61,0.00,,,0.00,Wunderground v.1.15,2013-02-21 07:52:00,
2013-02-21 02:53:00,24.1,12.6,30.08,NW,304,13.0,16.0,61,0.00,,,0.00,Wunderground v.1.15,2013-02-21 07:53:00,
2013-02-21 02:54:00,24.1,12.6,30.08,WNW,284,9.0,19.0,61,0.00,,,0.00,Wunderground v.1.15,2013-02-21 07:54:00,
2013-02-21 02:57:00,24.1,12.6,30.08,WNW,299,9.0,20.0,61,0.00,,,0.00,Wunderground v.1.15,2013-02-21 07:57:00,
2013-02-21 02:58:00,24.1,12.6,30.08,NNW,341,12.0,20.0,61,0.00,,,0.00,Wunderground v.1.15,2013-02-21 07:58:00,
2013-02-21 02:59:00,24.1,12.6,30.08,NW,326,7.0,20.0,61,0.00,,,0.00,Wunderground v.1.15,2013-02-21 07:59:00,
2013-02-21 03:02:00,24.1,12.2,30.08,WNW,290,15.0,19.0,60,0.00,,,0.00,Wunderground v.1.15,2013-02-21 08:02:00,
2013-02-21 03:03:00,24.1,12.6,30.08,WNW,295,9.0,19.0,61,0.00,,,0.00,Wunderground v.1.15,2013-02-21 08:03:00,
2013-02-21 03:04:00,24.1,12.6,30.08,NNW,338,9.0,19.0,61,0.00,,,0.00,Wunderground v.1.15,2013-02-21 08:04:00,
2013-02-21 03:07:00,24.0,12.5,30.08,NW,317,13.0,19.0,61,0.00,,,0.00,Wunderground v.1.15,2013-02-21 08:07:00,
2013-02-21 03:08:00,24.0,12.5,30.08,WNW,295,10.0,19.0,61,0.00,,,0.00,Wunderground v.1.15,2013-02-21 08:08:00,
2013-02-21 03:10:00,24.0,12.1,30.08,NW,307,11.0,16.0,60,0.00,,,0.00,Wunderground v.1.15,2013-02-21 08:10:00,
2013-02-21 03:12:00,24.0,12.5,30.08,NW,309,19.0,19.0,61,0.00,,,0.00,Wunderground v.1.15,2013-02-21 08:12:00,
2013-02-21 03:13:00,24.0,12.1,30.08,NW,315,10.0,19.0,60,0.00,,,0.00,Wunderground v.1.15,2013-02-21 08:13:00,
2013-02-21 03:14:00,24.0,12.1,30.08,NW,325,14.0,19.0,60,0.00,,,0.00,Wunderground v.1.15,2013-02-21 08:14:00,
2013-02-21 03:16:00,24.0,12.1,30.08,NW,304,16.0,19.0,60,0.00,,,0.00,Wunderground v.1.15,2013-02-21 08:16:00,
2013-02-21 03:17:00,24.0,12.1,30.08,NW,311,15.0,19.0,60,0.00,,,0.00,Wunderground v.1.15,2013-02-21 08:17:00,
2013-02-21 03:18:00,24.0,12.1,30.08,WNW,298,12.0,19.0,60,0.00,,,0.00,Wunderground v.1.15,2013-02-21 08:18:00,
2013-02-21 03:19:00,24.0,12.1,30.07,West,263,15.0,19.0,60,0.00,,,0.00,Wunderground v.1.15,2013-02-21 08:19:00,
2013-02-21 03:21:00,23.9,12.0,30.07,WNW,284,7.0,14.0,60,0.00,,,0.00,Wunderground v.1.15,2013-02-21 08:21:00,
2013-02-21 03:23:00,23.9,12.0,30.07,NW,311,9.0,20.0,60,0.00,,,0.00,Wunderground v.1.15,2013-02-21 08:23:00,
2013-02-21 03:24:00,23.9,12.0,30.07,NW,321,12.0,20.0,60,0.00,,,0.00,Wunderground v.1.15,2013-02-21 08:24:00,
2013-02-21 03:26:00,23.8,11.9,30.07,West,278,13.0,20.0,60,0.00,,,0.00,Wunderground v.1.15,2013-02-21 08:26:00,
2013-02-21 03:28:00,23.8,11.9,30.07,WNW,299,12.0,20.0,60,0.00,,,0.00,Wunderground v.1.15,2013-02-21 08:28:00,
2013-02-21 03:29:00,23.7,11.8,30.07,NW,307,11.0,20.0,60,0.00,,,0.00,Wunderground v.1.15,2013-02-21 08:29:00,
2013-02-21 03:31:00,23.7,12.2,30.07,WNW,299,9.0,12.0,61,0.00,,,0.00,Wunderground v.1.15,2013-02-21 08:31:00,
2013-02-21 03:34:00,23.7,11.8,30.08,West,271,9.0,18.0,60,0.00,,,0.00,Wunderground v.1.15,2013-02-21 08:34:00,
2013-02-21 03:37:00,23.6,11.7,30.07,WNW,282,8.0,18.0,60,0.00,,,0.00,Wunderground v.1.15,2013-02-21 08:37:00,
2013-02-21 03:38:00,23.6,12.1,30.07,NW,306,8.0,18.0,61,0.00,,,0.00,Wunderground v.1.15,2013-02-21 08:38:00,
2013-02-21 03:39:00,23.6,11.7,30.07,WNW,285,7.0,18.0,60,0.00,,,0.00,Wunderground v.1.15,2013-02-21 08:39:00,
2013-02-21 03:42:00,23.5,12.0,30.08,NW,304,7.0,13.0,61,0.00,,,0.00,Wunderground v.1.15,2013-02-21 08:42:00,
2013-02-21 03:43:00,23.5,12.0,30.08,WNW,301,15.0,18.0,61,0.00,,,0.00,weatherlink.com 1.10,2013-02-21 08:43:00,
2013-02-21 03:45:00,23.5,12.0,30.07,WNW,300,12.0,16.0,61,0.00,,,0.00,Wunderground v.1.15,2013-02-21 08:45:00,
2013-02-21 03:47:00,23.4,11.9,30.08,NW,306,10.0,16.0,61,0.00,,,0.00,Wunderground v.1.15,2013-02-21 08:47:00,
2013-02-21 03:48:00,23.4,11.9,30.08,WNW,288,11.0,16.0,61,0.00,,,0.00,Wunderground v.1.15,2013-02-21 08:48:00,
2013-02-21 03:50:00,23.4,11.9,30.07,WNW,302,9.0,10.0,61,0.00,,,0.00,Wunderground v.1.15,2013-02-21 08:50:00,
2013-02-21 03:53:00,23.4,11.9,30.08,WNW,292,12.0,17.0,61,0.00,,,0.00,Wunderground v.1.15,2013-02-21 08:53:00,
2013-02-21 03:55:00,23.4,11.9,30.07,WNW,295,8.0,17.0,61,0.00,,,0.00,Wunderground v.1.15,2013-02-21 08:55:00,
2013-02-21 03:58:00,23.3,11.8,30.07,NW,316,11.0,19.0,61,0.00,,,0.00,Wunderground v.1.15,2013-02-21 08:58:00,
2013-02-21 04:00:00,23.3,11.8,30.07,WNW,296,13.0,13.0,61,0.00,,,0.00,Wunderground v.1.15,2013-02-21 09:00:00,
2013-02-21 04:03:00,23.3,11.8,30.08,WNW,299,11.0,18.0,61,0.00,,,0.00,Wunderground v.1.15,2013-02-21 09:03:00,
2013-02-21 04:05:00,23.2,11.7,30.08,West,259,6.0,18.0,61,0.00,,,0.00,Wunderground v.1.15,2013-02-21 09:05:00,
2013-02-21 04:08:00,23.2,12.1,30.08,WNW,299,10.0,18.0,62,0.00,,,0.00,Wunderground v.1.15,2013-02-21 09:08:00,
2013-02-21 04:10:00,23.1,12.0,30.08,WNW,303,9.0,11.0,62,0.00,,,0.00,Wunderground v.1.15,2013-02-21 09:10:00,
2013-02-21 04:11:00,23.1,12.0,30.08,WNW,292,9.0,16.0,62,0.00,,,0.00,Wunderground v.1.15,2013-02-21 09:11:00,
2013-02-21 04:13:00,23.1,12.0,30.08,WNW,288,13.0,16.0,62,0.00,,,0.00,Wunderground v.1.15,2013-02-21 09:13:00,
2013-02-21 04:14:00,23.0,11.9,30.08,NW,322,14.0,16.0,62,0.00,,,0.00,Wunderground v.1.15,2013-02-21 09:14:00,
2013-02-21 04:15:00,23.0,11.9,30.08,WNW,289,10.0,16.0,62,0.00,,,0.00,Wunderground v.1.15,2013-02-21 09:15:00,
2013-02-21 04:16:00,23.0,11.9,30.08,WNW,302,13.0,16.0,62,0.00,,,0.00,Wunderground v.1.15,2013-02-21 09:16:00,
2013-02-21 04:18:00,23.0,11.9,30.08,NW,305,10.0,16.0,62,0.00,,,0.00,Wunderground v.1.15,2013-02-21 09:18:00,
2013-02-21 04:19:00,23.0,11.9,30.07,NW,307,16.0,16.0,62,0.00,,,0.00,Wunderground v.1.15,2013-02-21 09:19:00,
2013-02-21 04:20:00,23.0,11.9,30.08,West,278,8.0,11.0,62,0.00,,,0.00,Wunderground v.1.15,2013-02-21 09:20:00,
2013-02-21 04:21:00,23.0,11.9,30.08,WNW,300,8.0,11.0,62,0.00,,,0.00,Wunderground v.1.15,2013-02-21 09:21:00,
2013-02-21 04:23:00,22.9,11.8,30.07,WNW,294,7.0,16.0,62,0.00,,,0.00,Wunderground v.1.15,2013-02-21 09:23:00,
2013-02-21 04:24:00,22.9,11.8,30.07,NW,311,8.0,16.0,62,0.00,,,0.00,Wunderground v.1.15,2013-02-21 09:24:00,
2013-02-21 04:25:00,22.9,11.8,30.08,NW,304,12.0,19.0,62,0.00,,,0.00,Wunderground v.1.15,2013-02-21 09:25:00,
2013-02-21 04:26:00,22.9,11.8,30.08,NNW,347,11.0,19.0,62,0.00,,,0.00,Wunderground v.1.15,2013-02-21 09:26:00,
2013-02-21 04:28:00,22.9,11.8,30.08,North,355,8.0,19.0,62,0.00,,,0.00,Wunderground v.1.15,2013-02-21 09:28:00,
2013-02-21 04:29:00,22.9,11.8,30.08,NW,317,10.0,19.0,62,0.00,,,0.00,Wunderground v.1.15,2013-02-21 09:29:00,
2013-02-21 04:30:00,22.9,11.8,30.08,WNW,300,14.0,14.0,62,0.00,,,0.00,Wunderground v.1.15,2013-02-21 09:30:00,
2013-02-21 04:32:00,22.9,11.8,30.08,WNW,288,10.0,14.0,62,0.00,,,0.00,Wunderground v.1.15,2013-02-21 09:32:00,
2013-02-21 04:33:00,22.8,11.7,30.08,NW,308,13.0,17.0,62,0.00,,,0.00,Wunderground v.1.15,2013-02-21 09:33:00,
2013-02-21 04:34:00,22.8,11.7,30.08,West,267,8.0,17.0,62,0.00,,,0.00,Wunderground v.1.15,2013-02-21 09:34:00,
2013-02-21 04:36:00,22.8,11.7,30.08,West,276,8.0,17.0,62,0.00,,,0.00,Wunderground v.1.15,2013-02-21 09:36:00,
2013-02-21 04:37:00,22.8,11.7,30.08,NW,304,8.0,17.0,62,0.00,,,0.00,Wunderground v.1.15,2013-02-21 09:37:00,
2013-02-21 04:39:00,22.7,12.0,30.08,WNW,303,10.0,17.0,63,0.00,,,0.00,Wunderground v.1.15,2013-02-21 09:39:00,
2013-02-21 04:40:00,22.7,12.0,30.08,WNW,297,11.0,11.0,63,0.00,,,0.00,Wunderground v.1.15,2013-02-21 09:40:00,
2013-02-21 04:41:00,22.7,12.0,30.08,WNW,298,5.0,11.0,63,0.00,,,0.00,Wunderground v.1.15,2013-02-21 09:41:00,
2013-02-21 04:42:00,22.6,11.9,30.08,NNW,335,10.0,17.0,63,0.00,,,0.00,Wunderground v.1.15,2013-02-21 09:42:00,
2013-02-21 04:44:00,22.6,11.9,30.08,WNW,288,6.0,17.0,63,0.00,,,0.00,Wunderground v.1.15,2013-02-21 09:44:00,
2013-02-21 04:45:00,22.6,11.9,30.08,NW,313,10.0,17.0,63,0.00,,,0.00,Wunderground v.1.15,2013-02-21 09:45:00,
2013-02-21 04:46:00,22.6,11.9,30.08,WNW,290,12.0,17.0,63,0.00,,,0.00,Wunderground v.1.15,2013-02-21 09:46:00,
2013-02-21 04:48:00,22.6,11.9,30.08,NW,306,7.0,17.0,63,0.00,,,0.00,Wunderground v.1.15,2013-02-21 09:48:00,
2013-02-21 04:50:00,22.6,11.9,30.08,WNW,287,5.0,9.0,63,0.00,,,0.00,Wunderground v.1.15,2013-02-21 09:50:00,
2013-02-21 04:51:00,22.6,11.9,30.08,West,281,7.0,11.0,63,0.00,,,0.00,Wunderground v.1.15,2013-02-21 09:51:00,
2013-02-21 04:53:00,22.5,11.8,30.08,West,279,9.0,14.0,63,0.00,,,0.00,Wunderground v.1.15,2013-02-21 09:53:00,
2013-02-21 04:55:00,22.6,11.5,30.08,NW,306,11.0,16.0,62,0.00,,,0.00,Wunderground v.1.15,2013-02-21 09:55:00,
2013-02-21 04:56:00,22.6,11.5,30.08,NW,306,14.0,16.0,62,0.00,,,0.00,Wunderground v.1.15,2013-02-21 09:56:00,
2013-02-21 04:58:00,22.5,11.8,30.08,WNW,290,8.0,16.0,63,0.00,,,0.00,Wunderground v.1.15,2013-02-21 09:58:00,
2013-02-21 05:00:00,22.5,11.4,30.08,WNW,293,7.0,9.0,62,0.00,,,0.00,Wunderground v.1.15,2013-02-21 10:00:00,
2013-02-21 05:01:00,22.5,11.8,30.08,WNW,292,14.0,14.0,63,0.00,,,0.00,Wunderground v.1.15,2013-02-21 10:01:00,
2013-02-21 05:03:00,22.5,11.8,30.08,WNW,300,12.0,15.0,63,0.00,,,0.00,Wunderground v.1.15,2013-02-21 10:03:00,
2013-02-21 05:06:00,22.4,11.7,30.08,WNW,288,6.0,15.0,63,0.00,,,0.00,Wunderground v.1.15,2013-02-21 10:06:00,
2013-02-21 05:09:00,22.5,11.8,30.09,WNW,297,9.0,16.0,63,0.00,,,0.00,Wunderground v.1.15,2013-02-21 10:09:00,
2013-02-21 05:11:00,22.5,11.8,30.09,NW,306,9.0,12.0,63,0.00,,,0.00,Wunderground v.1.15,2013-02-21 10:11:00,
2013-02-21 05:12:00,22.5,11.8,30.09,NW,309,7.0,12.0,63,0.00,,,0.00,Wunderground v.1.15,2013-02-21 10:12:00,
2013-02-21 05:14:00,22.4,11.7,30.09,NW,309,13.0,15.0,63,0.00,,,0.00,Wunderground v.1.15,2013-02-21 10:14:00,
2013-02-21 05:16:00,22.4,11.7,30.09,WNW,292,8.0,15.0,63,0.00,,,0.00,Wunderground v.1.15,2013-02-21 10:16:00,
2013-02-21 05:17:00,22.4,11.7,30.09,WNW,300,10.0,15.0,63,0.00,,,0.00,Wunderground v.1.15,2013-02-21 10:17:00,
2013-02-21 05:19:00,22.4,11.7,30.09,WNW,283,12.0,20.0,63,0.00,,,0.00,Wunderground v.1.15,2013-02-21 10:19:00,
2013-02-21 05:21:00,22.4,11.7,30.09,WNW,300,8.0,10.0,63,0.00,,,0.00,Wunderground v.1.15,2013-02-21 10:21:00,
2013-02-21 05:22:00,22.4,11.7,30.09,NW,323,8.0,11.0,63,0.00,,,0.00,Wunderground v.1.15,2013-02-21 10:22:00,
2013-02-21 05:25:00,22.4,11.7,30.09,West,265,7.0,13.0,63,0.00,,,0.00,Wunderground v.1.15,2013-02-21 10:25:00,
2013-02-21 05:27:00,22.4,11.7,30.09,WNW,303,7.0,17.0,63,0.00,,,0.00,Wunderground v.1.15,2013-02-21 10:27:00,
2013-02-21 05:28:00,22.4,11.7,30.09,WNW,296,8.0,17.0,63,0.00,,,0.00,Wunderground v.1.15,2013-02-21 10:28:00,
2013-02-21 05:30:00,22.4,11.7,30.09,WNW,296,10.0,10.0,63,0.00,,,0.00,Wunderground v.1.15,2013-02-21 10:30:00,
2013-02-21 05:32:00,22.4,11.7,30.10,NW,309,12.0,16.0,63,0.00,,,0.00,Wunderground v.1.15,2013-02-21 10:32:00,
2013-02-21 05:33:00,22.4,11.7,30.09,WNW,297,12.0,16.0,63,0.00,,,0.00,Wunderground v.1.15,2013-02-21 10:33:00,
2013-02-21 05:36:00,22.4,11.7,30.09,NW,311,8.0,16.0,63,0.00,,,0.00,Wunderground v.1.15,2013-02-21 10:36:00,
2013-02-21 05:37:00,22.3,11.6,30.10,WNW,284,9.0,16.0,63,0.00,,,0.00,Wunderground v.1.15,2013-02-21 10:37:00,
2013-02-21 05:38:00,22.3,11.6,30.10,NW,307,6.0,16.0,63,0.00,,,0.00,Wunderground v.1.15,2013-02-21 10:38:00,
2013-02-21 05:41:00,22.2,11.5,30.10,NW,325,10.0,10.0,63,0.00,,,0.00,Wunderground v.1.15,2013-02-21 10:41:00,
2013-02-21 05:42:00,22.2,11.5,30.09,WNW,300,14.0,14.0,63,0.00,,,0.00,Wunderground v.1.15,2013-02-21 10:42:00,
2013-02-21 05:44:00,22.2,11.5,30.10,NW,304,10.0,14.0,63,0.00,,,0.00,Wunderground v.1.15,2013-02-21 10:44:00,
2013-02-21 05:46:00,22.2,11.5,30.10,WNW,288,13.0,14.0,63,0.00,,,0.00,Wunderground v.1.15,2013-02-21 10:46:00,
2013-02-21 05:48:00,22.2,11.5,30.10,NW,306,8.0,14.0,63,0.00,,,0.00,Wunderground v.1.15,2013-02-21 10:48:00,
2013-02-21 05:49:00,22.2,11.5,30.10,NW,312,9.0,14.0,63,0.00,,,0.00,Wunderground v.1.15,2013-02-21 10:49:00,
2013-02-21 05:52:00,22.2,11.5,30.10,West,279,8.0,15.0,63,0.00,,,0.00,Wunderground v.1.15,2013-02-21 10:52:00,
2013-02-21 05:53:00,22.2,11.5,30.10,WNW,287,13.0,15.0,63,0.00,,,0.00,Wunderground v.1.15,2013-02-21 10:53:00,
2013-02-21 05:54:00,22.2,11.5,30.10,North,350,10.0,15.0,63,0.00,,,0.00,Wunderground v.1.15,2013-02-21 10:54:00,
2013-02-21 05:57:00,22.2,11.5,30.10,WNW,294,10.0,18.0,63,0.00,,,0.00,Wunderground v.1.15,2013-02-21 10:57:00,
2013-02-21 05:58:00,22.2,11.5,30.10,WNW,290,10.0,18.0,63,0.00,,,0.00,Wunderground v.1.15,2013-02-21 10:58:00,
2013-02-21 05:59:00,22.2,11.5,30.10,NW,304,12.0,18.0,63,0.00,,,0.00,Wunderground v.1.15,2013-02-21 10:59:00,
2013-02-21 06:02:00,22.2,11.5,30.10,WNW,284,6.0,14.0,63,0.00,,,0.00,Wunderground v.1.15,2013-02-21 11:02:00,
2013-02-21 06:04:00,22.2,11.5,30.11,West,279,8.0,15.0,63,0.00,,,0.00,Wunderground v.1.15,2013-02-21 11:04:00,
2013-02-21 06:08:00,22.2,11.5,30.11,WNW,283,11.0,15.0,63,0.00,,,0.00,Wunderground v.1.15,2013-02-21 11:08:00,
2013-02-21 06:09:00,22.2,11.5,30.11,WNW,302,11.0,15.0,63,0.00,,,0.00,Wunderground v.1.15,2013-02-21 11:09:00,
2013-02-21 06:14:00,22.1,11.4,30.10,WNW,290,10.0,16.0,63,0.00,,,0.00,Wunderground v.1.15,2013-02-21 11:14:00,
2013-02-21 06:19:00,22.1,11.4,30.11,WSW,254,10.0,16.0,63,0.00,,,0.00,Wunderground v.1.15,2013-02-21 11:19:00,
2013-02-21 06:20:00,22.1,11.4,30.11,NNW,343,8.0,9.0,63,0.00,,,0.00,Wunderground v.1.15,2013-02-21 11:20:00,
2013-02-21 06:24:00,22.1,11.4,30.11,NW,307,13.0,13.0,63,0.00,,,0.00,Wunderground v.1.15,2013-02-21 11:24:00,
2013-02-21 06:25:00,22.1,11.4,30.11,WNW,282,9.0,15.0,63,0.00,,,0.00,Wunderground v.1.15,2013-02-21 11:25:00,
2013-02-21 06:30:00,22.1,11.1,30.11,NW,311,6.0,9.0,62,0.00,,,0.00,Wunderground v.1.15,2013-02-21 11:30:00,
2013-02-21 06:35:00,22.1,11.1,30.11,WNW,301,9.0,14.0,62,0.00,,,0.00,Wunderground v.1.15,2013-02-21 11:35:00,
2013-02-21 06:36:00,22.1,11.1,30.11,NW,306,12.0,14.0,62,0.00,,,0.00,Wunderground v.1.15,2013-02-21 11:36:00,
2013-02-21 06:40:00,22.2,11.1,30.11,NW,306,8.0,12.0,62,0.00,,,0.00,Wunderground v.1.15,2013-02-21 11:40:00,
2013-02-21 06:41:00,22.2,11.1,30.11,NW,312,9.0,12.0,62,0.00,,,0.00,Wunderground v.1.15,2013-02-21 11:41:00,
2013-02-21 06:45:00,22.1,11.1,30.12,NW,306,8.0,14.0,62,0.00,,,0.00,Wunderground v.1.15,2013-02-21 11:45:00,
2013-02-21 06:46:00,22.1,11.1,30.12,WNW,299,9.0,14.0,62,0.00,,,0.00,Wunderground v.1.15,2013-02-21 11:46:00,
2013-02-21 06:51:00,22.2,11.1,30.12,WNW,289,8.0,14.0,62,0.00,,,0.00,Wunderground v.1.15,2013-02-21 11:51:00,
2013-02-21 06:52:00,22.1,11.1,30.12,WNW,296,10.0,14.0,62,0.00,,,0.00,Wunderground v.1.15,2013-02-21 11:52:00,
2013-02-21 06:56:00,22.1,11.1,30.12,WNW,302,12.0,14.0,62,0.00,,,0.00,Wunderground v.1.15,2013-02-21 11:56:00,
2013-02-21 06:57:00,22.1,11.1,30.12,WNW,290,9.0,14.0,62,0.00,,,0.00,Wunderground v.1.15,2013-02-21 11:57:00,
2013-02-21 07:01:00,22.2,11.1,30.13,WNW,303,8.0,14.0,62,0.00,,,0.00,Wunderground v.1.15,2013-02-21 12:01:00,
2013-02-21 07:02:00,22.1,11.1,30.13,NW,320,7.0,14.0,62,0.00,,,0.00,Wunderground v.1.15,2013-02-21 12:02:00,
2013-02-21 07:06:00,22.2,10.8,30.13,West,279,13.0,15.0,61,0.00,,,0.00,Wunderground v.1.15,2013-02-21 12:06:00,
2013-02-21 07:07:00,22.3,10.9,30.13,WNW,293,6.0,15.0,61,0.00,,,0.00,Wunderground v.1.15,2013-02-21 12:07:00,
2013-02-21 07:12:00,22.3,10.9,30.13,WNW,283,11.0,18.0,61,0.00,,,0.00,Wunderground v.1.15,2013-02-21 12:12:00,
2013-02-21 07:17:00,22.4,11.0,30.13,West,276,14.0,18.0,61,0.00,,,0.00,Wunderground v.1.15,2013-02-21 12:17:00,
2013-02-21 07:22:00,22.4,10.6,30.13,WNW,284,7.0,13.0,60,0.00,,,0.00,Wunderground v.1.15,2013-02-21 12:22:00,
2013-02-21 07:23:00,22.4,10.0,30.13,NW,311,6.0,16.0,60,0.00,,,0.00,weatherlink.com 1.10,2013-02-21 12:23:00,
2013-02-21 07:27:00,22.4,10.6,30.13,WNW,289,7.0,13.0,60,0.00,,,0.00,Wunderground v.1.15,2013-02-21 12:27:00,
2013-02-21 07:28:00,22.5,10.7,30.13,NW,310,10.0,13.0,60,0.00,,,0.00,Wunderground v.1.15,2013-02-21 12:28:00,
2013-02-21 07:32:00,22.6,10.4,30.13,WNW,302,6.0,14.0,59,0.00,,,0.00,Wunderground v.1.15,2013-02-21 12:32:00,
2013-02-21 07:33:00,22.6,10.4,30.13,West,269,5.0,14.0,59,0.00,,,0.00,Wunderground v.1.15,2013-02-21 12:33:00,
2013-02-21 07:38:00,22.7,10.5,30.13,WNW,294,11.0,14.0,59,0.00,,,0.00,Wunderground v.1.15,2013-02-21 12:38:00,
2013-02-21 07:39:00,22.8,10.6,30.13,NNW,331,11.0,14.0,59,0.00,,,0.00,Wunderground v.1.15,2013-02-21 12:39:00,
2013-02-21 07:43:00,22.9,10.3,30.13,NW,304,11.0,17.0,58,0.00,,,0.00,Wunderground v.1.15,2013-02-21 12:43:00,
2013-02-21 07:44:00,23.0,10.4,30.12,WNW,302,6.0,17.0,58,0.00,,,0.00,Wunderground v.1.15,2013-02-21 12:44:00,
2013-02-21 07:48:00,23.1,10.1,30.13,NW,309,9.0,17.0,57,0.00,,,0.00,Wunderground v.1.15,2013-02-21 12:48:00,
2013-02-21 07:49:00,23.2,10.2,30.13,WNW,300,9.0,17.0,57,0.00,,,0.00,Wunderground v.1.15,2013-02-21 12:49:00,
2013-02-21 07:50:00,23.3,10.3,30.13,WNW,294,10.0,11.0,57,0.00,,,0.00,Wunderground v.1.15,2013-02-21 12:50:00,
2013-02-21 07:54:00,23.4,10.4,30.13,West,280,13.0,18.0,57,0.00,,,0.00,Wunderground v.1.15,2013-02-21 12:54:00,
2013-02-21 07:55:00,23.5,10.5,30.14,NW,304,9.0,18.0,57,0.00,,,0.00,Wunderground v.1.15,2013-02-21 12:55:00,
2013-02-21 07:59:00,23.5,10.5,30.14,NW,317,14.0,18.0,57,0.00,,,0.00,Wunderground v.1.15,2013-02-21 12:59:00,
2013-02-21 08:00:00,23.6,10.6,30.14,WNW,301,9.0,10.0,57,0.00,,,0.00,Wunderground v.1.15,2013-02-21 13:00:00,
2013-02-21 08:01:00,23.6,10.6,30.14,WNW,287,8.0,13.0,57,0.00,,,0.00,Wunderground v.1.15,2013-02-21 13:01:00,
2013-02-21 08:04:00,23.7,10.7,30.14,WNW,284,10.0,17.0,57,0.00,,,0.00,Wunderground v.1.15,2013-02-21 13:04:00,
2013-02-21 08:05:00,23.8,10.4,30.14,North,5,7.0,17.0,56,0.00,,,0.00,Wunderground v.1.15,2013-02-21 13:05:00,
2013-02-21 08:06:00,23.8,10.4,30.14,NW,325,9.0,17.0,56,0.00,,,0.00,Wunderground v.1.15,2013-02-21 13:06:00,
2013-02-21 08:09:00,23.9,10.5,30.14,NW,304,11.0,17.0,56,0.00,,,0.00,Wunderground v.1.15,2013-02-21 13:09:00,
2013-02-21 08:10:00,23.9,10.5,30.14,West,266,13.0,15.0,56,0.00,,,0.00,Wunderground v.1.15,2013-02-21 13:10:00,
2013-02-21 08:11:00,23.9,10.5,30.14,NW,307,14.0,15.0,56,0.00,,,0.00,Wunderground v.1.15,2013-02-21 13:11:00,
2013-02-21 08:14:00,24.0,10.6,30.13,NW,310,13.0,15.0,56,0.00,,,0.00,Wunderground v.1.15,2013-02-21 13:14:00,
2013-02-21 08:15:00,24.1,10.6,30.13,WNW,293,11.0,17.0,56,0.00,,,0.00,Wunderground v.1.15,2013-02-21 13:15:00,
2013-02-21 08:16:00,24.2,10.7,30.13,NW,319,12.0,17.0,56,0.00,,,0.00,Wunderground v.1.15,2013-02-21 13:16:00,
2013-02-21 08:19:00,24.3,10.4,30.13,WNW,300,10.0,17.0,55,0.00,,,0.00,Wunderground v.1.15,2013-02-21 13:19:00,
2013-02-21 08:21:00,24.4,10.9,30.13,WNW,302,12.0,15.0,56,0.00,,,0.00,Wunderground v.1.15,2013-02-21 13:21:00,
2013-02-21 08:25:00,24.6,10.7,30.13,NW,304,11.0,17.0,55,0.00,,,0.00,Wunderground v.1.15,2013-02-21 13:25:00,
2013-02-21 08:26:00,24.7,10.8,30.13,WNW,301,13.0,17.0,55,0.00,,,0.00,Wunderground v.1.15,2013-02-21 13:26:00,
2013-02-21 08:30:00,24.9,11.0,30.14,WNW,292,7.0,11.0,55,0.00,,,0.00,Wunderground v.1.15,2013-02-21 13:30:00,
2013-02-21 08:31:00,25.0,11.1,30.14,West,279,10.0,15.0,55,0.00,,,0.00,Wunderground v.1.15,2013-02-21 13:31:00,
2013-02-21 08:32:00,25.0,11.1,30.14,WNW,302,11.0,18.0,55,0.00,,,0.00,Wunderground v.1.15,2013-02-21 13:32:00,
2013-02-21 08:35:00,25.1,11.2,30.14,NW,304,13.0,18.0,55,0.00,,,0.00,Wunderground v.1.15,2013-02-21 13:35:00,
2013-02-21 08:37:00,25.3,11.0,30.14,WNW,294,10.0,18.0,54,0.00,,,0.00,Wunderground v.1.15,2013-02-21 13:37:00,
2013-02-21 08:41:00,25.5,11.1,30.14,WNW,296,13.0,15.0,54,0.00,,,0.00,Wunderground v.1.15,2013-02-21 13:41:00,
2013-02-21 08:42:00,25.6,11.2,30.14,WNW,300,10.0,15.0,54,0.00,,,0.00,Wunderground v.1.15,2013-02-21 13:42:00,
2013-02-21 08:46:00,25.8,11.0,30.14,NNW,331,5.0,16.0,53,0.00,,,0.00,Wunderground v.1.15,2013-02-21 13:46:00,
2013-02-21 08:47:00,25.8,11.0,30.14,WNW,297,12.0,16.0,53,0.00,,,0.00,Wunderground v.1.15,2013-02-21 13:47:00,
2013-02-21 08:51:00,26.1,10.9,30.14,NW,308,8.0,12.0,52,0.00,,,0.00,Wunderground v.1.15,2013-02-21 13:51:00,
2013-02-21 08:52:00,26.1,11.3,30.14,NW,314,12.0,12.0,53,0.00,,,0.00,Wunderground v.1.15,2013-02-21 13:52:00,
2013-02-21 08:53:00,26.2,11.4,30.14,WNW,303,11.0,15.0,53,0.00,,,0.00,Wunderground v.1.15,2013-02-21 13:53:00,
2013-02-21 08:56:00,26.4,11.1,30.14,NW,306,7.0,15.0,52,0.00,,,0.00,Wunderground v.1.15,2013-02-21 13:56:00,
2013-02-21 08:57:00,26.5,11.2,30.14,WNW,290,9.0,15.0,52,0.00,,,0.00,Wunderground v.1.15,2013-02-21 13:57:00,
2013-02-21 08:58:00,26.5,11.2,30.14,West,281,8.0,15.0,52,0.00,,,0.00,Wunderground v.1.15,2013-02-21 13:58:00,
2013-02-21 09:02:00,26.8,11.5,30.14,NW,318,12.0,13.0,52,0.00,,,0.00,Wunderground v.1.15,2013-02-21 14:02:00,
2013-02-21 09:03:00,26.9,11.2,30.14,WNW,291,6.0,15.0,51,0.00,,,0.00,Wunderground v.1.15,2013-02-21 14:03:00,
2013-02-21 09:07:00,26.9,11.2,30.15,WNW,298,11.0,15.0,51,0.00,,,0.00,Wunderground v.1.15,2013-02-21 14:07:00,
2013-02-21 09:08:00,27.0,11.3,30.15,NW,304,8.0,17.0,51,0.00,,,0.00,Wunderground v.1.15,2013-02-21 14:08:00,
2013-02-21 09:12:00,27.2,11.4,30.15,NW,307,7.0,14.0,51,0.00,,,0.00,Wunderground v.1.15,2013-02-21 14:12:00,
2013-02-21 09:13:00,27.2,11.4,30.15,WNW,301,7.0,15.0,51,0.00,,,0.00,Wunderground v.1.15,2013-02-21 14:13:00,
2013-02-21 09:14:00,27.2,11.4,30.15,WNW,292,8.0,15.0,51,0.00,,,0.00,Wunderground v.1.15,2013-02-21 14:14:00,
2013-02-21 09:18:00,27.4,11.2,30.15,NW,311,8.0,18.0,50,0.00,,,0.00,Wunderground v.1.15,2013-02-21 14:18:00,
2013-02-21 09:19:00,27.5,11.3,30.15,NW,321,8.0,18.0,50,0.00,,,0.00,Wunderground v.1.15,2013-02-21 14:19:00,
2013-02-21 09:23:00,27.6,11.4,30.15,NW,311,10.0,17.0,50,0.00,,,0.00,Wunderground v.1.15,2013-02-21 14:23:00,
2013-02-21 09:24:00,27.6,10.9,30.15,WNW,300,8.0,17.0,49,0.00,,,0.00,Wunderground v.1.15,2013-02-21 14:24:00,
2013-02-21 09:25:00,27.7,11.5,30.15,NW,306,6.0,17.0,50,0.00,,,0.00,Wunderground v.1.15,2013-02-21 14:25:00,
2013-02-21 09:28:00,27.9,11.2,30.15,WNW,298,10.0,17.0,49,0.00,,,0.00,Wunderground v.1.15,2013-02-21 14:28:00,
2013-02-21 09:29:00,27.9,11.2,30.15,WNW,296,13.0,17.0,49,0.00,,,0.00,Wunderground v.1.15,2013-02-21 14:29:00,
2013-02-21 09:30:00,27.9,11.2,30.15,WNW,289,10.0,10.0,49,0.00,,,0.00,Wunderground v.1.15,2013-02-21 14:30:00,
2013-02-21 09:34:00,28.2,11.5,30.15,WNW,294,11.0,12.0,49,0.00,,,0.00,Wunderground v.1.15,2013-02-21 14:34:00,
2013-02-21 09:35:00,28.3,11.6,30.15,NW,314,14.0,14.0,49,0.00,,,0.00,Wunderground v.1.15,2013-02-21 14:35:00,
2013-02-21 09:39:00,28.3,11.6,30.15,WSW,257,9.0,16.0,49,0.00,,,0.00,Wunderground v.1.15,2013-02-21 14:39:00,
2013-02-21 09:40:00,28.4,11.2,30.15,WNW,294,14.0,14.0,48,0.00,,,0.00,Wunderground v.1.15,2013-02-21 14:40:00,
2013-02-21 09:44:00,28.6,11.4,30.15,NW,306,4.0,17.0,48,0.00,,,0.00,Wunderground v.1.15,2013-02-21 14:44:00,
2013-02-21 09:45:00,28.7,11.9,30.15,West,261,5.0,17.0,49,0.00,,,0.00,Wunderground v.1.15,2013-02-21 14:45:00,
2013-02-21 09:49:00,29.4,11.6,30.15,NW,306,6.0,17.0,47,0.00,,,0.00,Wunderground v.1.15,2013-02-21 14:49:00,
2013-02-21 09:50:00,29.4,11.6,30.15,West,268,5.0,10.0,47,0.00,,,0.00,Wunderground v.1.15,2013-02-21 14:50:00,
2013-02-21 09:51:00,29.5,11.7,30.15,WNW,296,11.0,11.0,47,0.00,,,0.00,Wunderground v.1.15,2013-02-21 14:51:00,
2013-02-21 09:54:00,29.9,11.6,30.15,WNW,298,4.0,14.0,46,0.00,,,0.00,Wunderground v.1.15,2013-02-21 14:54:00,
2013-02-21 09:55:00,29.9,11.6,30.15,WSW,247,4.0,14.0,46,0.00,,,0.00,Wunderground v.1.15,2013-02-21 14:55:00,
2013-02-21 09:56:00,29.9,11.6,30.15,WNW,292,11.0,14.0,46,0.00,,,0.00,Wunderground v.1.15,2013-02-21 14:56:00,
2013-02-21 09:59:00,30.1,11.3,30.16,NW,309,7.0,16.0,45,0.00,,,0.00,Wunderground v.1.15,2013-02-21 14:59:00,
2013-02-21 10:01:00,30.2,11.4,30.16,WNW,286,8.0,11.0,45,0.00,,,0.00,Wunderground v.1.15,2013-02-21 15:01:00,
2013-02-21 10:02:00,30.2,11.9,30.16,NW,305,8.0,11.0,46,0.00,,,0.00,Wunderground v.1.15,2013-02-21 15:02:00,
2013-02-21 10:04:00,30.4,12.1,30.16,WNW,290,8.0,11.0,46,0.00,,,0.00,Wunderground v.1.15,2013-02-21 15:04:00,
2013-02-21 10:06:00,30.6,12.2,30.16,NW,325,5.0,11.0,46,0.00,,,0.00,Wunderground v.1.15,2013-02-21 15:06:00,
2013-02-21 10:07:00,30.7,11.8,30.16,NNW,334,5.0,11.0,45,0.00,,,0.00,Wunderground v.1.15,2013-02-21 15:07:00,
2013-02-21 10:09:00,30.9,12.5,30.16,NW,306,9.0,11.0,46,0.00,,,0.00,Wunderground v.1.15,2013-02-21 15:09:00,
2013-02-21 10:11:00,31.1,11.7,30.16,WNW,289,5.0,12.0,44,0.00,,,0.00,Wunderground v.1.15,2013-02-21 15:11:00,
2013-02-21 10:13:00,31.3,12.4,30.16,WNW,294,11.0,14.0,45,0.00,,,0.00,Wunderground v.1.15,2013-02-21 15:13:00,
2013-02-21 10:15:00,31.4,12.0,30.16,WNW,295,5.0,14.0,44,0.00,,,0.00,Wunderground v.1.15,2013-02-21 15:15:00,
2013-02-21 10:16:00,31.5,12.1,30.16,WNW,294,8.0,14.0,44,0.00,,,0.00,Wunderground v.1.15,2013-02-21 15:16:00,
2013-02-21 10:18:00,31.7,11.7,30.16,WNW,300,8.0,14.0,43,0.00,,,0.00,Wunderground v.1.15,2013-02-21 15:18:00,
2013-02-21 10:20:00,31.7,11.7,30.16,WNW,293,5.0,7.0,43,0.00,,,0.00,Wunderground v.1.15,2013-02-21 15:20:00,
2013-02-21 10:21:00,31.8,11.8,30.16,WNW,300,7.0,11.0,43,0.00,,,0.00,Wunderground v.1.15,2013-02-21 15:21:00,
2013-02-21 10:22:00,31.9,11.9,30.16,NW,304,4.0,11.0,43,0.00,,,0.00,Wunderground v.1.15,2013-02-21 15:22:00,
2013-02-21 10:23:00,32.0,12.5,30.16,NW,318,8.0,11.0,44,0.00,,,0.00,Wunderground v.1.15,2013-02-21 15:23:00,
2013-02-21 10:25:00,32.2,12.7,30.16,WNW,288,5.0,11.0,44,0.00,,,0.00,Wunderground v.1.15,2013-02-21 15:25:00,
2013-02-21 10:26:00,32.4,12.4,30.16,NW,319,8.0,14.0,43,0.00,,,0.00,Wunderground v.1.15,2013-02-21 15:26:00,
2013-02-21 10:28:00,32.5,11.9,30.16,West,272,10.0,14.0,42,0.00,,,0.00,Wunderground v.1.15,2013-02-21 15:28:00,
2013-02-21 10:30:00,32.6,12.0,30.16,WNW,287,2.0,7.0,42,0.00,,,0.00,Wunderground v.1.15,2013-02-21 15:30:00,
2013-02-21 10:31:00,32.7,13.2,30.16,WNW,296,7.0,7.0,44,0.00,,,0.00,Wunderground v.1.15,2013-02-21 15:31:00,
2013-02-21 10:33:00,32.8,12.7,30.16,NW,310,8.0,12.0,43,0.00,,,0.00,Wunderground v.1.15,2013-02-21 15:33:00,
2013-02-21 10:34:00,32.9,12.3,30.16,NNW,330,7.0,12.0,42,0.00,,,0.00,Wunderground v.1.15,2013-02-21 15:34:00,
2013-02-21 10:35:00,32.9,12.3,30.16,WNW,291,7.0,12.0,42,0.00,,,0.00,Wunderground v.1.15,2013-02-21 15:35:00,
2013-02-21 10:36:00,33.0,12.4,30.16,WNW,302,5.0,12.0,42,0.00,,,0.00,Wunderground v.1.15,2013-02-21 15:36:00,
2013-02-21 10:38:00,33.1,12.5,30.16,WNW,292,4.0,12.0,42,0.00,,,0.00,Wunderground v.1.15,2013-02-21 15:38:00,
2013-02-21 10:39:00,33.3,12.6,30.16,North,360,7.0,12.0,42,0.00,,,0.00,Wunderground v.1.15,2013-02-21 15:39:00,
2013-02-21 10:40:00,33.4,12.7,30.16,NNW,328,13.0,13.0,42,0.00,,,0.00,Wunderground v.1.15,2013-02-21 15:40:00,
2013-02-21 10:41:00,33.5,12.8,30.16,NW,319,8.0,13.0,42,0.00,,,0.00,Wunderground v.1.15,2013-02-21 15:41:00,
2013-02-21 10:43:00,33.7,12.5,30.16,NW,305,8.0,13.0,41,0.00,,,0.00,Wunderground v.1.15,2013-02-21 15:43:00,
2013-02-21 10:45:00,33.8,12.6,30.16,WNW,296,10.0,13.0,41,0.00,,,0.00,Wunderground v.1.15,2013-02-21 15:45:00,
2013-02-21 10:47:00,33.8,12.6,30.16,NW,306,7.0,13.0,41,0.00,,,0.00,Wunderground v.1.15,2013-02-21 15:47:00,
2013-02-21 10:48:00,33.9,12.1,30.16,North,355,8.0,14.0,40,0.00,,,0.00,Wunderground v.1.15,2013-02-21 15:48:00,
2013-02-21 10:50:00,34.0,12.7,30.16,WNW,303,12.0,12.0,41,0.00,,,0.00,Wunderground v.1.15,2013-02-21 15:50:00,
2013-02-21 10:52:00,34.1,12.8,30.16,WNW,288,5.0,12.0,41,0.00,,,0.00,Wunderground v.1.15,2013-02-21 15:52:00,
2013-02-21 10:54:00,34.2,12.9,30.16,WNW,299,8.0,13.0,41,0.00,,,0.00,Wunderground v.1.15,2013-02-21 15:54:00,
2013-02-21 10:55:00,34.3,13.0,30.16,NW,323,9.0,13.0,41,0.00,,,0.00,Wunderground v.1.15,2013-02-21 15:55:00,
2013-02-21 10:56:00,34.3,13.0,30.16,NW,319,11.0,13.0,41,0.00,,,0.00,Wunderground v.1.15,2013-02-21 15:56:00,
2013-02-21 10:57:00,34.4,12.5,30.16,NW,315,10.0,13.0,40,0.00,,,0.00,Wunderground v.1.15,2013-02-21 15:57:00,
2013-02-21 10:59:00,34.5,12.6,30.16,WNW,300,6.0,13.0,40,0.00,,,0.00,Wunderground v.1.15,2013-02-21 15:59:00,
2013-02-21 11:00:00,34.6,13.3,30.16,NNW,329,8.0,10.0,41,0.00,,,0.00,Wunderground v.1.15,2013-02-21 16:00:00,
2013-02-21 11:01:00,34.6,13.3,30.16,WNW,298,11.0,12.0,41,0.00,,,0.00,Wunderground v.1.15,2013-02-21 16:01:00,
2013-02-21 11:03:00,34.8,13.5,30.15,West,268,7.0,12.0,41,0.00,,,0.00,Wunderground v.1.15,2013-02-21 16:03:00,
2013-02-21 11:04:00,35.1,13.2,30.16,NNW,336,7.0,12.0,40,0.00,,,0.00,Wunderground v.1.15,2013-02-21 16:04:00,
2013-02-21 11:05:00,35.3,13.3,30.16,NW,314,9.0,12.0,40,0.00,,,0.00,Wunderground v.1.15,2013-02-21 16:05:00,
2013-02-21 11:06:00,35.3,12.8,30.16,WNW,294,7.0,12.0,39,0.00,,,0.00,Wunderground v.1.15,2013-02-21 16:06:00,
2013-02-21 11:08:00,35.5,13.5,30.16,WNW,299,10.0,13.0,40,0.00,,,0.00,Wunderground v.1.15,2013-02-21 16:08:00,
2013-02-21 11:09:00,35.6,13.0,30.16,WNW,291,4.0,13.0,39,0.00,,,0.00,Wunderground v.1.15,2013-02-21 16:09:00,
2013-02-21 11:11:00,35.7,13.1,30.16,NNW,338,10.0,11.0,39,0.00,,,0.00,Wunderground v.1.15,2013-02-21 16:11:00,
2013-02-21 11:12:00,35.7,13.1,30.16,NW,325,11.0,11.0,39,0.00,,,0.00,Wunderground v.1.15,2013-02-21 16:12:00,
2013-02-21 11:13:00,35.6,12.5,30.16,WNW,299,7.0,14.0,38,0.00,,,0.00,Wunderground v.1.15,2013-02-21 16:13:00,
2013-02-21 11:14:00,35.6,13.0,30.16,WNW,291,10.0,14.0,39,0.00,,,0.00,Wunderground v.1.15,2013-02-21 16:14:00,
2013-02-21 11:16:00,35.7,13.1,30.16,NW,304,4.0,14.0,39,0.00,,,0.00,Wunderground v.1.15,2013-02-21 16:16:00,
2013-02-21 11:17:00,35.9,13.3,30.16,NNW,329,7.0,14.0,39,0.00,,,0.00,Wunderground v.1.15,2013-02-21 16:17:00,
2013-02-21 11:18:00,36.0,13.4,30.16,NNW,346,10.0,14.0,39,0.00,,,0.00,Wunderground v.1.15,2013-02-21 16:18:00,
2013-02-21 11:20:00,36.3,13.1,30.16,WNW,290,7.0,8.0,38,0.00,,,0.00,Wunderground v.1.15,2013-02-21 16:20:00,
2013-02-21 11:21:00,36.4,13.8,30.16,West,281,5.0,9.0,39,0.00,,,0.00,Wunderground v.1.15,2013-02-21 16:21:00,
2013-02-21 11:22:00,36.5,13.9,30.16,WNW,296,6.0,10.0,39,0.00,,,0.00,Wunderground v.1.15,2013-02-21 16:22:00,
2013-02-21 11:23:00,36.6,13.9,30.16,WNW,301,8.0,10.0,39,0.00,,,0.00,Wunderground v.1.15,2013-02-21 16:23:00,
2013-02-21 11:25:00,36.8,13.5,30.16,WNW,283,6.0,10.0,38,0.00,,,0.00,Wunderground v.1.15,2013-02-21 16:25:00,
2013-02-21 11:27:00,36.9,14.2,30.16,NNW,338,9.0,10.0,39,0.00,,,0.00,Wunderground v.1.15,2013-02-21 16:27:00,
2013-02-21 11:28:00,37.1,14.4,30.16,WNW,293,7.0,12.0,39,0.00,,,0.00,Wunderground v.1.15,2013-02-21 16:28:00,
2013-02-21 11:31:00,37.2,13.3,30.16,NNW,331,7.0,13.0,37,0.00,,,0.00,Wunderground v.1.15,2013-02-21 16:31:00,
2013-02-21 11:32:00,37.3,13.4,30.16,NW,324,6.0,13.0,37,0.00,,,0.00,Wunderground v.1.15,2013-02-21 16:32:00,
2013-02-21 11:34:00,37.3,13.4,30.16,West,280,4.0,13.0,37,0.00,,,0.00,Wunderground v.1.15,2013-02-21 16:34:00,
2013-02-21 11:36:00,37.4,14.1,30.16,WNW,288,5.0,13.0,38,0.00,,,0.00,Wunderground v.1.15,2013-02-21 16:36:00,
2013-02-21 11:37:00,37.6,13.0,30.16,NNW,339,3.0,13.0,36,0.00,,,0.00,Wunderground v.1.15,2013-02-21 16:37:00,
2013-02-21 11:39:00,37.7,13.7,30.16,WNW,287,8.0,13.0,37,0.00,,,0.00,Wunderground v.1.15,2013-02-21 16:39:00,
2013-02-21 11:41:00,37.8,13.2,30.16,West,271,11.0,11.0,36,0.00,,,0.00,Wunderground v.1.15,2013-02-21 16:41:00,
2013-02-21 11:43:00,37.7,12.5,30.16,NW,304,8.0,11.0,35,0.00,,,0.00,Wunderground v.1.15,2013-02-21 16:43:00,
2013-02-21 11:44:00,37.7,13.1,30.16,North,5,7.0,13.0,36,0.00,,,0.00,Wunderground v.1.15,2013-02-21 16:44:00,
2013-02-21 11:46:00,37.7,12.5,30.16,WNW,300,4.0,13.0,35,0.00,,,0.00,Wunderground v.1.15,2013-02-21 16:46:00,
2013-02-21 11:48:00,37.7,12.5,30.16,NW,304,6.0,13.0,35,0.00,,,0.00,Wunderground v.1.15,2013-02-21 16:48:00,
2013-02-21 11:49:00,37.7,13.1,30.16,WNW,300,7.0,13.0,36,0.00,,,0.00,Wunderground v.1.15,2013-02-21 16:49:00,
2013-02-21 11:50:00,37.7,12.5,30.16,NNW,337,6.0,7.0,35,0.00,,,0.00,Wunderground v.1.15,2013-02-21 16:50:00,
2013-02-21 11:51:00,37.8,12.6,30.16,West,277,8.0,13.0,35,0.00,,,0.00,Wunderground v.1.15,2013-02-21 16:51:00,
2013-02-21 11:53:00,37.9,12.6,30.16,West,266,11.0,13.0,35,0.00,,,0.00,Wunderground v.1.15,2013-02-21 16:53:00,
2013-02-21 11:54:00,37.9,12.6,30.16,WNW,294,12.0,13.0,35,0.00,,,0.00,Wunderground v.1.15,2013-02-21 16:54:00,
2013-02-21 11:55:00,37.9,12.0,30.15,West,263,7.0,13.0,34,0.00,,,0.00,Wunderground v.1.15,2013-02-21 16:55:00,
2013-02-21 11:56:00,38.0,13.4,30.15,WNW,301,8.0,13.0,36,0.00,,,0.00,Wunderground v.1.15,2013-02-21 16:56:00,
2013-02-21 11:59:00,38.3,14.3,30.15,WNW,297,4.0,13.0,37,0.00,,,0.00,Wunderground v.1.15,2013-02-21 16:59:00,
2013-02-21 12:01:00,38.7,12.7,30.15,WNW,290,9.0,15.0,34,0.00,,,0.00,Wunderground v.1.15,2013-02-21 17:01:00,
2013-02-21 12:02:00,38.7,12.7,30.15,NNW,331,10.0,15.0,34,0.00,,,0.00,Wunderground v.1.15,2013-02-21 17:02:00,
2013-02-21 12:04:00,38.6,12.6,30.15,West,275,5.0,15.0,34,0.00,,,0.00,Wunderground v.1.15,2013-02-21 17:04:00,
2013-02-21 12:05:00,38.7,13.4,30.15,WNW,300,7.0,15.0,35,0.00,,,0.00,Wunderground v.1.15,2013-02-21 17:05:00,
2013-02-21 12:06:00,38.8,13.4,30.14,West,271,9.0,15.0,35,0.00,,,0.00,Wunderground v.1.15,2013-02-21 17:06:00,
2013-02-21 12:07:00,39.0,13.6,30.14,NW,325,4.0,15.0,35,0.00,,,0.00,Wunderground v.1.15,2013-02-21 17:07:00,
2013-02-21 12:09:00,39.3,14.5,30.14,WNW,292,9.0,15.0,36,0.00,,,0.00,Wunderground v.1.15,2013-02-21 17:09:00,
2013-02-21 12:10:00,39.5,13.4,30.14,NW,304,5.0,8.0,34,0.00,,,0.00,Wunderground v.1.15,2013-02-21 17:10:00,
2013-02-21 12:11:00,39.6,13.5,30.14,WNW,302,8.0,8.0,34,0.00,,,0.00,Wunderground v.1.15,2013-02-21 17:11:00,
2013-02-21 12:13:00,39.8,13.7,30.14,North,349,5.0,9.0,34,0.00,,,0.00,Wunderground v.1.15,2013-02-21 17:13:00,
2013-02-21 12:14:00,40.0,14.5,30.14,WNW,292,11.0,11.0,35,0.00,,,0.00,Wunderground v.1.15,2013-02-21 17:14:00,
2013-02-21 12:16:00,40.2,14.7,30.14,WNW,298,6.0,11.0,35,0.00,,,0.00,Wunderground v.1.15,2013-02-21 17:16:00,
2013-02-21 12:18:00,40.4,13.5,30.14,NW,320,5.0,11.0,33,0.00,,,0.00,Wunderground v.1.15,2013-02-21 17:18:00,
2013-02-21 12:19:00,40.5,13.6,30.14,WNW,287,9.0,11.0,33,0.00,,,0.00,Wunderground v.1.15,2013-02-21 17:19:00,
2013-02-21 12:21:00,40.6,14.4,30.15,NW,315,3.0,6.0,34,0.00,,,0.00,Wunderground v.1.15,2013-02-21 17:21:00,
2013-02-21 12:23:00,40.9,14.6,30.15,NW,304,8.0,8.0,34,0.00,,,0.00,Wunderground v.1.15,2013-02-21 17:23:00,
2013-02-21 12:25:00,41.1,14.8,30.15,NW,315,5.0,8.0,34,0.00,,,0.00,Wunderground v.1.15,2013-02-21 17:25:00,
2013-02-21 12:26:00,41.2,13.5,30.15,NNW,348,4.0,8.0,32,0.00,,,0.00,Wunderground v.1.15,2013-02-21 17:26:00,
2013-02-21 12:28:00,41.3,13.6,30.15,WNW,303,0.0,10.0,32,0.00,,,0.00,Wunderground v.1.15,2013-02-21 17:28:00,
2013-02-21 12:30:00,41.3,13.6,30.15,NW,311,4.0,5.0,32,0.00,,,0.00,Wunderground v.1.15,2013-02-21 17:30:00,
2013-02-21 12:31:00,41.3,14.3,30.15,North,350,6.0,7.0,33,0.00,,,0.00,Wunderground v.1.15,2013-02-21 17:31:00,
2013-02-21 12:33:00,41.4,13.7,30.15,West,279,7.0,10.0,32,0.00,,,0.00,Wunderground v.1.15,2013-02-21 17:33:00,
2013-02-21 12:35:00,41.4,15.1,30.15,NW,311,4.0,10.0,34,0.00,,,0.00,Wunderground v.1.15,2013-02-21 17:35:00,
2013-02-21 12:36:00,41.5,15.2,30.15,NNW,329,6.0,10.0,34,0.00,,,0.00,Wunderground v.1.15,2013-02-21 17:36:00,
2013-02-21 12:38:00,41.6,13.2,30.15,East,94,2.0,11.0,31,0.00,,,0.00,Wunderground v.1.15,2013-02-21 17:38:00,
2013-02-21 12:41:00,41.5,13.8,30.15,WNW,300,4.0,8.0,32,0.00,,,0.00,Wunderground v.1.15,2013-02-21 17:41:00,
2013-02-21 12:42:00,41.6,13.9,30.15,North,349,4.0,8.0,32,0.00,,,0.00,Wunderground v.1.15,2013-02-21 17:42:00,
2013-02-21 12:44:00,41.7,14.7,30.15,WNW,294,4.0,8.0,33,0.00,,,0.00,Wunderground v.1.15,2013-02-21 17:44:00,
2013-02-21 12:46:00,42.0,14.2,30.14,NNW,327,1.0,8.0,32,0.00,,,0.00,Wunderground v.1.15,2013-02-21 17:46:00,
2013-02-21 12:47:00,42.1,14.3,30.14,West,261,5.0,8.0,32,0.00,,,0.00,Wunderground v.1.15,2013-02-21 17:47:00,
2013-02-21 12:49:00,42.2,12.9,30.14,WNW,302,3.0,8.0,30,0.00,,,0.00,Wunderground v.1.15,2013-02-21 17:49:00,
2013-02-21 12:51:00,42.0,13.5,30.14,WNW,298,5.0,10.0,31,0.00,,,0.00,Wunderground v.1.15,2013-02-21 17:51:00,
2013-02-21 12:52:00,42.0,13.5,30.14,NW,308,10.0,10.0,31,0.00,,,0.00,Wunderground v.1.15,2013-02-21 17:52:00,
2013-02-21 12:54:00,41.8,14.1,30.14,West,270,4.0,10.0,32,0.00,,,0.00,Wunderground v.1.15,2013-02-21 17:54:00,
2013-02-21 12:57:00,42.0,13.5,30.14,West,273,8.0,13.0,31,0.00,,,0.00,Wunderground v.1.15,2013-02-21 17:57:00,
2013-02-21 13:00:00,41.8,12.6,30.14,WSW,251,6.0,13.0,30,0.00,,,0.00,Wunderground v.1.15,2013-02-21 18:00:00,
2013-02-21 13:02:00,41.5,13.1,30.14,North,355,5.0,9.0,31,0.00,,,0.00,Wunderground v.1.15,2013-02-21 18:02:00,
2013-02-21 13:03:00,41.5,13.0,30.14,West,267,8.0,13.0,31,0.00,,,0.00,weatherlink.com 1.10,2013-02-21 18:03:00,
2013-02-21 13:05:00,41.5,13.1,30.14,WNW,296,5.0,10.0,31,0.00,,,0.00,Wunderground v.1.15,2013-02-21 18:05:00,
2013-02-21 13:07:00,41.6,13.9,30.13,WNW,293,5.0,10.0,32,0.00,,,0.00,Wunderground v.1.15,2013-02-21 18:07:00,
2013-02-21 13:08:00,41.6,13.9,30.13,WNW,292,4.0,10.0,32,0.00,,,0.00,Wunderground v.1.15,2013-02-21 18:08:00,
2013-02-21 13:10:00,42.0,14.9,30.13,NW,317,4.0,6.0,33,0.00,,,0.00,Wunderground v.1.15,2013-02-21 18:10:00,
2013-02-21 13:12:00,42.4,13.9,30.13,NNW,343,3.0,7.0,31,0.00,,,0.00,Wunderground v.1.15,2013-02-21 18:12:00,
2013-02-21 13:13:00,42.4,13.9,30.13,NW,322,4.0,7.0,31,0.00,,,0.00,Wunderground v.1.15,2013-02-21 18:13:00,
2013-02-21 13:15:00,42.6,14.8,30.13,NNW,346,5.0,9.0,32,0.00,,,0.00,Wunderground v.1.15,2013-02-21 18:15:00,
2013-02-21 13:18:00,42.8,14.9,30.13,NNE,26,1.0,9.0,32,0.00,,,0.00,Wunderground v.1.15,2013-02-21 18:18:00,
2013-02-21 13:19:00,42.9,14.3,30.13,NW,304,2.0,9.0,31,0.00,,,0.00,Wunderground v.1.15,2013-02-21 18:19:00,
2013-02-21 13:20:00,43.0,13.6,30.13,WNW,302,7.0,9.0,30,0.00,,,0.00,Wunderground v.1.15,2013-02-21 18:20:00,
2013-02-21 13:23:00,43.0,13.6,30.13,NW,314,5.0,9.0,30,0.00,,,0.00,Wunderground v.1.15,2013-02-21 18:23:00,
2013-02-21 13:24:00,42.9,13.5,30.13,NNE,23,2.0,9.0,30,0.00,,,0.00,Wunderground v.1.15,2013-02-21 18:24:00,
2013-02-21 13:26:00,42.9,13.5,30.13,WSW,250,1.0,10.0,30,0.00,,,0.00,Wunderground v.1.15,2013-02-21 18:26:00,
2013-02-21 13:28:00,43.0,13.6,30.13,NW,307,3.0,10.0,30,0.00,,,0.00,Wunderground v.1.15,2013-02-21 18:28:00,
2013-02-21 13:29:00,43.0,13.6,30.13,NW,307,5.0,10.0,30,0.00,,,0.00,Wunderground v.1.15,2013-02-21 18:29:00,
2013-02-21 13:31:00,43.1,13.7,30.13,WNW,294,3.0,8.0,30,0.00,,,0.00,Wunderground v.1.15,2013-02-21 18:31:00,
2013-02-21 13:33:00,43.4,14.7,30.13,NW,308,3.0,8.0,31,0.00,,,0.00,Wunderground v.1.15,2013-02-21 18:33:00,
2013-02-21 13:34:00,43.5,14.1,30.13,NW,313,3.0,8.0,30,0.00,,,0.00,Wunderground v.1.15,2013-02-21 18:34:00,
2013-02-21 13:36:00,43.7,15.0,30.13,WNW,303,5.0,8.0,31,0.00,,,0.00,Wunderground v.1.15,2013-02-21 18:36:00,
2013-02-21 13:38:00,43.8,15.1,30.13,NW,321,7.0,9.0,31,0.00,,,0.00,Wunderground v.1.15,2013-02-21 18:38:00,
2013-02-21 13:39:00,43.8,15.1,30.12,NW,322,7.0,9.0,31,0.00,,,0.00,Wunderground v.1.15,2013-02-21 18:39:00,
2013-02-21 13:41:00,44.0,14.5,30.12,NE,41,3.0,7.0,30,0.00,,,0.00,Wunderground v.1.15,2013-02-21 18:41:00,
2013-02-21 13:43:00,44.1,14.6,30.12,NW,323,7.0,7.0,30,0.00,,,0.00,Wunderground v.1.15,2013-02-21 18:43:00,
2013-02-21 13:44:00,44.1,13.8,30.12,NNW,346,4.0,7.0,29,0.00,,,0.00,Wunderground v.1.15,2013-02-21 18:44:00,
2013-02-21 13:47:00,44.1,14.6,30.12,North,350,5.0,7.0,30,0.00,,,0.00,Wunderground v.1.15,2013-02-21 18:47:00,
2013-02-21 13:48:00,44.2,14.7,30.12,NW,309,7.0,9.0,30,0.00,,,0.00,Wunderground v.1.15,2013-02-21 18:48:00,
2013-02-21 13:50:00,44.1,13.0,30.12,NW,309,7.0,7.0,28,0.00,,,0.00,Wunderground v.1.15,2013-02-21 18:50:00,
2013-02-21 13:52:00,44.0,12.9,30.12,WNW,298,6.0,10.0,28,0.00,,,0.00,Wunderground v.1.15,2013-02-21 18:52:00,
2013-02-21 13:54:00,44.0,13.7,30.11,WNW,300,4.0,10.0,29,0.00,,,0.00,Wunderground v.1.15,2013-02-21 18:54:00,
2013-02-21 13:55:00,43.7,12.7,30.11,WNW,282,10.0,10.0,28,0.00,,,0.00,Wunderground v.1.15,2013-02-21 18:55:00,
2013-02-21 13:57:00,43.4,12.4,30.11,WNW,286,3.0,11.0,28,0.00,,,0.00,Wunderground v.1.15,2013-02-21 18:57:00,
2013-02-21 13:59:00,43.1,13.7,30.11,NW,311,8.0,11.0,30,0.00,,,0.00,Wunderground v.1.15,2013-02-21 18:59:00,
2013-02-21 14:00:00,43.1,13.7,30.11,West,270,3.0,8.0,30,0.00,,,0.00,Wunderground v.1.15,2013-02-21 19:00:00,
2013-02-21 14:01:00,43.2,13.8,30.11,West,264,3.0,8.0,30,0.00,,,0.00,Wunderground v.1.15,2013-02-21 19:01:00,
2013-02-21 14:02:00,43.4,13.2,30.11,NW,306,4.0,8.0,29,0.00,,,0.00,Wunderground v.1.15,2013-02-21 19:02:00,
2013-02-21 14:04:00,43.6,14.2,30.11,WNW,300,4.0,8.0,30,0.00,,,0.00,Wunderground v.1.15,2013-02-21 19:04:00,
2013-02-21 14:05:00,43.7,14.2,30.11,NNW,346,2.0,8.0,30,0.00,,,0.00,Wunderground v.1.15,2013-02-21 19:05:00,
2013-02-21 14:06:00,43.8,13.6,30.11,SW,220,3.0,8.0,29,0.00,,,0.00,Wunderground v.1.15,2013-02-21 19:06:00,
2013-02-21 14:07:00,43.9,14.4,30.11,WNW,300,6.0,9.0,30,0.00,,,0.00,Wunderground v.1.15,2013-02-21 19:07:00,
2013-02-21 14:09:00,43.9,13.6,30.11,WNW,292,4.0,9.0,29,0.00,,,0.00,Wunderground v.1.15,2013-02-21 19:09:00,
2013-02-21 14:11:00,43.9,13.6,30.11,NW,317,2.0,6.0,29,0.00,,,0.00,Wunderground v.1.15,2013-02-21 19:11:00,
2013-02-21 14:12:00,44.0,13.7,30.11,NE,45,1.0,6.0,29,0.00,,,0.00,Wunderground v.1.15,2013-02-21 19:12:00,
2013-02-21 14:14:00,44.1,13.8,30.11,WNW,300,3.0,6.0,29,0.00,,,0.00,Wunderground v.1.15,2013-02-21 19:14:00,
2013-02-21 14:16:00,44.2,14.7,30.11,WNW,288,2.0,7.0,30,0.00,,,0.00,Wunderground v.1.15,2013-02-21 19:16:00,
2013-02-21 14:17:00,44.5,14.2,30.12,WNW,301,6.0,9.0,29,0.00,,,0.00,Wunderground v.1.15,2013-02-21 19:17:00,
2013-02-21 14:19:00,44.6,14.3,30.12,WNW,292,8.0,10.0,29,0.00,,,0.00,Wunderground v.1.15,2013-02-21 19:19:00,
2013-02-21 14:21:00,44.6,14.3,30.12,NW,309,8.0,8.0,29,0.00,,,0.00,Wunderground v.1.15,2013-02-21 19:21:00,
2013-02-21 14:22:00,44.7,13.5,30.11,WNW,294,8.0,9.0,28,0.00,,,0.00,Wunderground v.1.15,2013-02-21 19:22:00,
2013-02-21 14:25:00,44.8,12.8,30.11,WNW,292,3.0,9.0,27,0.00,,,0.00,Wunderground v.1.15,2013-02-21 19:25:00,
2013-02-21 14:26:00,44.7,12.7,30.11,WNW,288,3.0,12.0,27,0.00,,,0.00,Wunderground v.1.15,2013-02-21 19:26:00,
2013-02-21 14:28:00,44.7,13.5,30.11,WSW,257,4.0,12.0,28,0.00,,,0.00,Wunderground v.1.15,2013-02-21 19:28:00,
2013-02-21 14:31:00,44.9,14.5,30.10,NNW,336,5.0,6.0,29,0.00,,,0.00,Wunderground v.1.15,2013-02-21 19:31:00,
2013-02-21 14:32:00,45.0,14.6,30.10,NW,305,6.0,7.0,29,0.00,,,0.00,Wunderground v.1.15,2013-02-21 19:32:00,
2013-02-21 14:34:00,45.2,13.1,30.10,NNW,329,4.0,8.0,27,0.00,,,0.00,Wunderground v.1.15,2013-02-21 19:34:00,
2013-02-21 14:36:00,45.4,13.3,30.10,West,267,1.0,8.0,27,0.00,,,0.00,Wunderground v.1.15,2013-02-21 19:36:00,
2013-02-21 14:37:00,45.5,14.2,30.10,NW,311,5.0,8.0,28,0.00,,,0.00,Wunderground v.1.15,2013-02-21 19:37:00,
2013-02-21 14:38:00,45.7,13.6,30.10,WNW,287,7.0,8.0,27,0.00,,,0.00,Wunderground v.1.15,2013-02-21 19:38:00,
2013-02-21 14:41:00,45.6,14.3,30.10,WNW,283,7.0,8.0,28,0.00,,,0.00,Wunderground v.1.15,2013-02-21 19:41:00,
2013-02-21 14:42:00,45.6,14.3,30.10,NW,310,4.0,8.0,28,0.00,,,0.00,Wunderground v.1.15,2013-02-21 19:42:00,
2013-02-21 14:44:00,45.6,14.3,30.10,NE,53,1.0,8.0,28,0.00,,,0.00,Wunderground v.1.15,2013-02-21 19:44:00,
2013-02-21 14:47:00,45.7,14.4,30.09,NW,317,0.0,8.0,28,0.00,,,0.00,Wunderground v.1.15,2013-02-21 19:47:00,
2013-02-21 14:48:00,45.8,14.5,30.09,NW,317,0.0,8.0,28,0.00,,,0.00,Wunderground v.1.15,2013-02-21 19:48:00,
2013-02-21 14:49:00,46.0,14.7,30.09,WNW,294,7.0,8.0,28,0.00,,,0.00,Wunderground v.1.15,2013-02-21 19:49:00,
2013-02-21 14:52:00,46.2,14.0,30.09,NNE,12,8.0,9.0,27,0.00,,,0.00,Wunderground v.1.15,2013-02-21 19:52:00,
2013-02-21 14:53:00,46.2,14.0,30.09,NW,311,8.0,9.0,27,0.00,,,0.00,Wunderground v.1.15,2013-02-21 19:53:00,
2013-02-21 14:54:00,46.4,14.2,30.09,West,276,5.0,9.0,27,0.00,,,0.00,Wunderground v.1.15,2013-02-21 19:54:00,
2013-02-21 14:58:00,46.5,12.5,30.09,NW,325,3.0,9.0,25,0.00,,,0.00,Wunderground v.1.15,2013-02-21 19:58:00,
2013-02-21 14:59:00,46.6,13.5,30.09,NW,324,3.0,10.0,26,0.00,,,0.00,Wunderground v.1.15,2013-02-21 19:59:00,
2013-02-21 15:00:00,46.6,13.5,30.09,WNW,286,5.0,6.0,26,0.00,,,0.00,Wunderground v.1.15,2013-02-21 20:00:00,
2013-02-21 15:03:00,46.7,12.7,30.10,WNW,290,7.0,10.0,25,0.00,,,0.00,Wunderground v.1.15,2013-02-21 20:03:00,
2013-02-21 15:04:00,46.7,12.7,30.10,NW,309,7.0,10.0,25,0.00,,,0.00,Wunderground v.1.15,2013-02-21 20:04:00,
2013-02-21 15:05:00,46.7,11.8,30.10,West,275,8.0,10.0,24,0.00,,,0.00,Wunderground v.1.15,2013-02-21 20:05:00,
2013-02-21 15:08:00,46.7,11.8,30.11,WNW,286,5.0,12.0,24,0.00,,,0.00,Wunderground v.1.15,2013-02-21 20:08:00,
2013-02-21 15:09:00,46.7,11.8,30.11,WNW,288,7.0,12.0,24,0.00,,,0.00,Wunderground v.1.15,2013-02-21 20:09:00,
2013-02-21 15:10:00,46.7,10.8,30.11,NNW,327,7.0,10.0,23,0.00,,,0.00,Wunderground v.1.15,2013-02-21 20:10:00,
2013-02-21 15:12:00,46.7,11.8,30.11,WNW,288,3.0,10.0,24,0.00,,,0.00,Wunderground v.1.15,2013-02-21 20:12:00,
2013-02-21 15:15:00,46.8,10.9,30.12,West,275,3.0,10.0,23,0.00,,,0.00,Wunderground v.1.15,2013-02-21 20:15:00,
2013-02-21 15:17:00,46.9,11.9,30.12,WNW,302,4.0,10.0,24,0.00,,,0.00,Wunderground v.1.15,2013-02-21 20:17:00,
2013-02-21 15:20:00,47.3,11.3,30.11,WNW,286,4.0,4.0,23,0.00,,,0.00,Wunderground v.1.15,2013-02-21 20:20:00,
2013-02-21 15:22:00,47.5,12.4,30.11,NW,309,11.0,11.0,24,0.00,,,0.00,Wunderground v.1.15,2013-02-21 20:22:00,
2013-02-21 15:25:00,47.7,10.6,30.11,NW,304,7.0,11.0,22,0.00,,,0.00,Wunderground v.1.15,2013-02-21 20:25:00,
2013-02-21 15:27:00,47.7,10.6,30.11,WNW,286,7.0,11.0,22,0.00,,,0.00,Wunderground v.1.15,2013-02-21 20:27:00,
2013-02-21 15:30:00,47.7,11.6,30.11,WNW,302,4.0,5.0,23,0.00,,,0.00,Wunderground v.1.15,2013-02-21 20:30:00,
2013-02-21 15:31:00,47.7,11.6,30.11,West,280,6.0,8.0,23,0.00,,,0.00,Wunderground v.1.15,2013-02-21 20:31:00,
2013-02-21 15:32:00,47.8,11.7,30.11,NW,308,4.0,8.0,23,0.00,,,0.00,Wunderground v.1.15,2013-02-21 20:32:00,
2013-02-21 15:35:00,47.9,11.8,30.11,NW,320,10.0,10.0,23,0.00,,,0.00,Wunderground v.1.15,2013-02-21 20:35:00,
2013-02-21 15:37:00,47.9,11.8,30.11,NNW,327,7.0,10.0,23,0.00,,,0.00,Wunderground v.1.15,2013-02-21 20:37:00,
2013-02-21 15:38:00,48.0,11.9,30.11,NW,315,3.0,10.0,23,0.00,,,0.00,Wunderground v.1.15,2013-02-21 20:38:00,
2013-02-21 15:40:00,48.1,12.0,30.11,NNW,329,7.0,12.0,23,0.00,,,0.00,Wunderground v.1.15,2013-02-21 20:40:00,
2013-02-21 15:41:00,48.1,11.0,30.11,NW,319,8.0,12.0,22,0.00,,,0.00,Wunderground v.1.15,2013-02-21 20:41:00,
2013-02-21 15:43:00,48.1,12.0,30.11,NNW,340,2.0,12.0,23,0.00,,,0.00,Wunderground v.1.15,2013-02-21 20:43:00,
2013-02-21 15:45:00,48.1,12.0,30.11,NW,314,4.0,12.0,23,0.00,,,0.00,Wunderground v.1.15,2013-02-21 20:45:00,
2013-02-21 15:46:00,48.1,12.0,30.11,North,11,6.0,12.0,23,0.00,,,0.00,Wunderground v.1.15,2013-02-21 20:46:00,
2013-02-21 15:48:00,48.1,11.0,30.10,WNW,284,5.0,12.0,22,0.00,,,0.00,Wunderground v.1.15,2013-02-21 20:48:00,
2013-02-21 15:50:00,48.1,12.0,30.11,NNW,328,2.0,7.0,23,0.00,,,0.00,Wunderground v.1.15,2013-02-21 20:50:00,
2013-02-21 15:51:00,48.1,12.0,30.11,West,271,5.0,7.0,23,0.00,,,0.00,Wunderground v.1.15,2013-02-21 20:51:00,
2013-02-21 15:54:00,48.1,12.0,30.10,NW,312,5.0,9.0,23,0.00,,,0.00,Wunderground v.1.15,2013-02-21 20:54:00,
2013-02-21 15:56:00,48.2,12.1,30.10,WNW,288,5.0,9.0,23,0.00,,,0.00,Wunderground v.1.15,2013-02-21 20:56:00,
2013-02-21 15:57:00,48.2,12.1,30.10,NW,306,6.0,9.0,23,0.00,,,0.00,Wunderground v.1.15,2013-02-21 20:57:00,
2013-02-21 15:59:00,48.2,12.1,30.10,WNW,303,6.0,11.0,23,0.00,,,0.00,Wunderground v.1.15,2013-02-21 20:59:00,
2013-02-21 16:02:00,48.1,11.0,30.10,WNW,300,2.0,6.0,22,0.00,,,0.00,Wunderground v.1.15,2013-02-21 21:02:00,
2013-02-21 16:04:00,48.1,13.0,30.11,NW,325,5.0,8.0,24,0.00,,,0.00,Wunderground v.1.15,2013-02-21 21:04:00,
2013-02-21 16:07:00,48.1,12.0,30.11,NNW,331,6.0,8.0,23,0.00,,,0.00,Wunderground v.1.15,2013-02-21 21:07:00,
2013-02-21 16:09:00,48.1,12.0,30.11,NW,317,3.0,8.0,23,0.00,,,0.00,Wunderground v.1.15,2013-02-21 21:09:00,
2013-02-21 16:12:00,48.2,13.0,30.11,WNW,296,4.0,6.0,24,0.00,,,0.00,Wunderground v.1.15,2013-02-21 21:12:00,
2013-02-21 16:14:00,48.2,11.1,30.11,NW,316,6.0,6.0,22,0.00,,,0.00,Wunderground v.1.15,2013-02-21 21:14:00,
2013-02-21 16:17:00,48.1,11.0,30.11,NNE,28,5.0,6.0,22,0.00,,,0.00,Wunderground v.1.15,2013-02-21 21:17:00,
2013-02-21 16:18:00,48.1,12.0,30.11,NNE,28,2.0,6.0,23,0.00,,,0.00,Wunderground v.1.15,2013-02-21 21:18:00,
2013-02-21 16:20:00,48.0,10.9,30.11,NW,310,4.0,4.0,22,0.00,,,0.00,Wunderground v.1.15,2013-02-21 21:20:00,
2013-02-21 16:23:00,47.8,11.7,30.11,NW,315,2.0,4.0,23,0.00,,,0.00,Wunderground v.1.15,2013-02-21 21:23:00,
2013-02-21 16:25:00,47.8,11.7,30.12,NNW,346,2.0,4.0,23,0.00,,,0.00,Wunderground v.1.15,2013-02-21 21:25:00,
2013-02-21 16:28:00,48.0,12.9,30.12,NW,320,2.0,6.0,24,0.00,,,0.00,Wunderground v.1.15,2013-02-21 21:28:00,
2013-02-21 16:29:00,48.0,12.9,30.12,North,360,2.0,6.0,24,0.00,,,0.00,Wunderground v.1.15,2013-02-21 21:29:00,
2013-02-21 16:30:00,48.0,11.9,30.12,NW,318,6.0,6.0,23,0.00,,,0.00,Wunderground v.1.15,2013-02-21 21:30:00,
2013-02-21 16:34:00,47.7,12.6,30.13,WNW,303,4.0,6.0,24,0.00,,,0.00,Wunderground v.1.15,2013-02-21 21:34:00,
2013-02-21 16:35:00,47.6,12.5,30.13,NW,317,2.0,6.0,24,0.00,,,0.00,Wunderground v.1.15,2013-02-21 21:35:00,
2013-02-21 16:39:00,47.4,12.4,30.13,WNW,298,4.0,6.0,24,0.00,,,0.00,Wunderground v.1.15,2013-02-21 21:39:00,
2013-02-21 16:40:00,47.3,12.3,30.13,WNW,301,2.0,4.0,24,0.00,,,0.00,Wunderground v.1.15,2013-02-21 21:40:00,
2013-02-21 16:41:00,47.2,12.2,30.13,WNW,302,3.0,4.0,24,0.00,,,0.00,Wunderground v.1.15,2013-02-21 21:41:00,
2013-02-21 16:44:00,47.0,12.0,30.14,NNW,338,0.0,4.0,24,0.00,,,0.00,Wunderground v.1.15,2013-02-21 21:44:00,
2013-02-21 16:45:00,46.8,12.8,30.14,NW,304,4.0,4.0,25,0.00,,,0.00,Wunderground v.1.15,2013-02-21 21:45:00,
2013-02-21 16:46:00,46.8,12.8,30.14,NW,304,5.0,5.0,25,0.00,,,0.00,Wunderground v.1.15,2013-02-21 21:46:00,
2013-02-21 16:49:00,46.4,13.3,30.14,WNW,294,1.0,6.0,26,0.00,,,0.00,Wunderground v.1.15,2013-02-21 21:49:00,
2013-02-21 16:50:00,46.4,13.3,30.14,WNW,294,1.0,3.0,26,0.00,,,0.00,Wunderground v.1.15,2013-02-21 21:50:00,
2013-02-21 16:51:00,46.3,13.2,30.14,WNW,294,0.0,3.0,26,0.00,,,0.00,Wunderground v.1.15,2013-02-21 21:51:00,
2013-02-21 16:54:00,46.1,13.9,30.14,WNW,295,1.0,3.0,27,0.00,,,0.00,Wunderground v.1.15,2013-02-21 21:54:00,
2013-02-21 16:55:00,46.1,13.1,30.13,WNW,296,0.0,3.0,26,0.00,,,0.00,Wunderground v.1.15,2013-02-21 21:55:00,
2013-02-21 16:56:00,46.0,13.0,30.13,NNE,13,2.0,3.0,26,0.00,,,0.00,Wunderground v.1.15,2013-02-21 21:56:00,
2013-02-21 16:59:00,45.9,13.0,30.13,NNE,25,2.0,4.0,26,0.00,,,0.00,weatherlink.com 1.10,2013-02-21 21:59:00,
2013-02-21 17:00:00,45.8,12.8,30.13,NE,34,1.0,2.0,26,0.00,,,0.00,Wunderground v.1.15,2013-02-21 22:00:00,
2013-02-21 17:01:00,45.7,12.7,30.13,NE,43,2.0,3.0,26,0.00,,,0.00,Wunderground v.1.15,2013-02-21 22:01:00,
2013-02-21 17:05:00,45.4,12.5,30.13,NE,34,0.0,5.0,26,0.00,,,0.00,Wunderground v.1.15,2013-02-21 22:05:00,
2013-02-21 17:06:00,45.3,13.2,30.13,NNW,331,0.0,5.0,27,0.00,,,0.00,Wunderground v.1.15,2013-02-21 22:06:00,
2013-02-21 17:07:00,45.3,13.2,30.13,NNW,331,0.0,5.0,27,0.00,,,0.00,Wunderground v.1.15,2013-02-21 22:07:00,
2013-02-21 17:10:00,45.1,13.1,30.13,North,355,0.0,1.0,27,0.00,,,0.00,Wunderground v.1.15,2013-02-21 22:10:00,
2013-02-21 17:12:00,45.0,13.8,30.13,NE,38,2.0,3.0,28,0.00,,,0.00,Wunderground v.1.15,2013-02-21 22:12:00,
2013-02-21 17:15:00,44.9,12.9,30.13,NNE,20,2.0,4.0,27,0.00,,,0.00,Wunderground v.1.15,2013-02-21 22:15:00,
2013-02-21 17:17:00,44.8,13.6,30.13,North,355,0.0,4.0,28,0.00,,,0.00,Wunderground v.1.15,2013-02-21 22:17:00,
2013-02-21 17:20:00,44.6,13.5,30.13,NW,313,0.0,1.0,28,0.00,,,0.00,Wunderground v.1.15,2013-02-21 22:20:00,
2013-02-21 17:22:00,44.5,13.4,30.13,NW,307,0.0,1.0,28,0.00,,,0.00,Wunderground v.1.15,2013-02-21 22:22:00,
2013-02-21 17:25:00,44.3,13.2,30.14,NNE,30,2.0,3.0,28,0.00,,,0.00,Wunderground v.1.15,2013-02-21 22:25:00,
2013-02-21 17:27:00,44.2,13.9,30.14,NE,40,1.0,3.0,29,0.00,,,0.00,Wunderground v.1.15,2013-02-21 22:27:00,
2013-02-21 17:28:00,44.2,13.9,30.14,NE,46,3.0,3.0,29,0.00,,,0.00,Wunderground v.1.15,2013-02-21 22:28:00,
2013-02-21 17:30:00,44.1,13.8,30.14,NNE,28,0.0,1.0,29,0.00,,,0.00,Wunderground v.1.15,2013-02-21 22:30:00,
2013-02-21 17:31:00,44.0,13.7,30.14,NNE,28,0.0,1.0,29,0.00,,,0.00,Wunderground v.1.15,2013-02-21 22:31:00,
2013-02-21 17:32:00,43.9,13.6,30.14,NNE,28,0.0,3.0,29,0.00,,,0.00,Wunderground v.1.15,2013-02-21 22:32:00,
2013-02-21 17:33:00,43.9,13.6,30.14,NNE,28,1.0,3.0,29,0.00,,,0.00,Wunderground v.1.15,2013-02-21 22:33:00,
2013-02-21 17:36:00,43.7,13.5,30.14,NNE,26,1.0,3.0,29,0.00,,,0.00,Wunderground v.1.15,2013-02-21 22:36:00,
2013-02-21 17:38:00,43.5,13.3,30.14,NE,55,1.0,3.0,29,0.00,,,0.00,Wunderground v.1.15,2013-02-21 22:38:00,
2013-02-21 17:41:00,43.4,14.0,30.14,NE,49,0.0,3.0,30,0.00,,,0.00,Wunderground v.1.15,2013-02-21 22:41:00,
2013-02-21 17:43:00,43.3,13.9,30.14,NE,49,0.0,3.0,30,0.00,,,0.00,Wunderground v.1.15,2013-02-21 22:43:00,
2013-02-21 17:44:00,43.2,14.6,30.14,NE,49,0.0,3.0,31,0.00,,,0.00,Wunderground v.1.15,2013-02-21 22:44:00,
2013-02-21 17:46:00,43.1,14.5,30.15,NE,49,0.0,3.0,31,0.00,,,0.00,Wunderground v.1.15,2013-02-21 22:46:00,
2013-02-21 17:49:00,42.9,13.5,30.15,NE,49,1.0,3.0,30,0.00,,,0.00,Wunderground v.1.15,2013-02-21 22:49:00,
2013-02-21 17:52:00,42.8,13.5,30.15,NE,49,0.0,1.0,30,0.00,,,0.00,Wunderground v.1.15,2013-02-21 22:52:00,
2013-02-21 17:54:00,42.7,14.1,30.15,NE,49,1.0,1.0,31,0.00,,,0.00,Wunderground v.1.15,2013-02-21 22:54:00,
2013-02-21 17:57:00,42.5,13.9,30.15,NNE,28,0.0,4.0,31,0.00,,,0.00,Wunderground v.1.15,2013-02-21 22:57:00,
2013-02-21 17:59:00,42.3,13.8,30.15,NE,34,0.0,4.0,31,0.00,,,0.00,Wunderground v.1.15,2013-02-21 22:59:00,
2013-02-21 18:00:00,42.3,13.8,30.15,NE,34,0.0,0.0,31,0.00,,,0.00,Wunderground v.1.15,2013-02-21 23:00:00,
2013-02-21 18:02:00,42.1,15.0,30.15,NE,34,0.0,1.0,33,0.00,,,0.00,Wunderground v.1.15,2013-02-21 23:02:00,
2013-02-21 18:04:00,41.9,14.1,30.15,NE,34,1.0,2.0,32,0.00,,,0.00,Wunderground v.1.15,2013-02-21 23:04:00,
2013-02-21 18:05:00,41.9,14.8,30.15,NE,34,0.0,2.0,33,0.00,,,0.00,Wunderground v.1.15,2013-02-21 23:05:00,
2013-02-21 18:08:00,41.7,14.7,30.15,NE,34,0.0,2.0,33,0.00,,,0.00,Wunderground v.1.15,2013-02-21 23:08:00,
2013-02-21 18:09:00,41.6,14.6,30.15,NE,34,2.0,3.0,33,0.00,,,0.00,Wunderground v.1.15,2013-02-21 23:09:00,
2013-02-21 18:10:00,41.5,14.5,30.14,NE,44,3.0,3.0,33,0.00,,,0.00,Wunderground v.1.15,2013-02-21 23:10:00,
2013-02-21 18:13:00,41.4,13.7,30.14,NE,44,2.0,3.0,32,0.00,,,0.00,Wunderground v.1.15,2013-02-21 23:13:00,
2013-02-21 18:15:00,41.2,14.2,30.14,NE,50,0.0,3.0,33,0.00,,,0.00,Wunderground v.1.15,2013-02-21 23:15:00,
2013-02-21 18:18:00,41.0,14.1,30.15,NE,51,0.0,3.0,33,0.00,,,0.00,Wunderground v.1.15,2013-02-21 23:18:00,
2013-02-21 18:20:00,40.9,14.0,30.14,NE,51,1.0,2.0,33,0.00,,,0.00,Wunderground v.1.15,2013-02-21 23:20:00,
2013-02-21 18:23:00,40.7,13.8,30.14,NE,51,1.0,2.0,33,0.00,,,0.00,Wunderground v.1.15,2013-02-21 23:23:00,
2013-02-21 18:26:00,40.6,14.4,30.14,NE,51,2.0,2.0,34,0.00,,,0.00,Wunderground v.1.15,2013-02-21 23:26:00,
2013-02-21 18:28:00,40.4,14.2,30.15,ENE,57,1.0,2.0,34,0.00,,,0.00,Wunderground v.1.15,2013-02-21 23:28:00,
2013-02-21 18:31:00,40.2,14.7,30.15,ENE,57,1.0,2.0,35,0.00,,,0.00,Wunderground v.1.15,2013-02-21 23:31:00,
2013-02-21 18:34:00,40.1,14.6,30.15,ENE,57,1.0,2.0,35,0.00,,,0.00,Wunderground v.1.15,2013-02-21 23:34:00,
2013-02-21 18:36:00,40.0,15.2,30.15,ENE,57,1.0,2.0,36,0.00,,,0.00,Wunderground v.1.15,2013-02-21 23:36:00,
2013-02-21 18:39:00,39.9,14.4,30.14,ENE,57,2.0,3.0,35,0.00,,,0.00,Wunderground v.1.15,2013-02-21 23:39:00,
2013-02-21 18:41:00,39.8,14.3,30.14,ENE,57,1.0,2.0,35,0.00,,,0.00,Wunderground v.1.15,2013-02-21 23:41:00,
2013-02-21 18:44:00,39.7,14.2,30.14,ENE,57,1.0,2.0,35,0.00,,,0.00,Wunderground v.1.15,2013-02-21 23:44:00,
2013-02-21 18:46:00,39.6,14.2,30.15,ENE,57,0.0,2.0,35,0.00,,,0.00,Wunderground v.1.15,2013-02-21 23:46:00,
2013-02-21 18:49:00,39.5,13.4,30.15,ENE,57,1.0,2.0,34,0.00,,,0.00,Wunderground v.1.15,2013-02-21 23:49:00,
2013-02-21 18:51:00,39.4,13.3,30.15,ENE,57,0.0,1.0,34,0.00,,,0.00,Wunderground v.1.15,2013-02-21 23:51:00,
2013-02-21 18:52:00,39.4,14.0,30.15,ENE,57,0.0,1.0,35,0.00,,,0.00,Wunderground v.1.15,2013-02-21 23:52:00,
2013-02-21 18:55:00,39.3,14.5,30.15,ENE,57,0.0,1.0,36,0.00,,,0.00,Wunderground v.1.15,2013-02-21 23:55:00,
2013-02-21 18:56:00,39.3,14.5,30.16,ENE,57,0.0,1.0,36,0.00,,,0.00,Wunderground v.1.15,2013-02-21 23:56:00,
2013-02-21 18:57:00,39.3,14.5,30.16,ENE,57,0.0,1.0,36,0.00,,,0.00,Wunderground v.1.15,2013-02-21 23:57:00,
2013-02-21 19:00:00,39.2,14.4,30.15,ENE,57,0.0,0.0,36,0.00,,,0.00,Wunderground v.1.15,2013-02-22 00:00:00,
2013-02-21 19:01:00,39.1,15.0,30.15,ENE,57,0.0,0.0,37,0.00,,,0.00,Wunderground v.1.15,2013-02-22 00:01:00,
2013-02-21 19:02:00,39.1,14.4,30.15,ENE,57,0.0,0.0,36,0.00,,,0.00,Wunderground v.1.15,2013-02-22 00:02:00,
2013-02-21 19:05:00,39.0,14.9,30.16,ENE,57,0.0,0.0,37,0.00,,,0.00,Wunderground v.1.15,2013-02-22 00:05:00,
2013-02-21 19:06:00,39.0,14.9,30.16,ENE,57,0.0,0.0,37,0.00,,,0.00,Wunderground v.1.15,2013-02-22 00:06:00,
2013-02-21 19:07:00,39.0,14.9,30.16,ENE,57,0.0,0.0,37,0.00,,,0.00,Wunderground v.1.15,2013-02-22 00:07:00,
2013-02-21 19:11:00,38.8,15.9,30.17,ENE,61,1.0,2.0,39,0.00,,,0.00,Wunderground v.1.15,2013-02-22 00:11:00,
2013-02-21 19:12:00,38.8,15.9,30.17,ENE,61,0.0,2.0,39,0.00,,,0.00,Wunderground v.1.15,2013-02-22 00:12:00,
2013-02-21 19:13:00,38.7,15.8,30.17,ENE,61,0.0,2.0,39,0.00,,,0.00,Wunderground v.1.15,2013-02-22 00:13:00,
2013-02-21 19:16:00,38.6,15.7,30.17,ENE,61,0.0,2.0,39,0.00,,,0.00,Wunderground v.1.15,2013-02-22 00:16:00,
2013-02-21 19:17:00,38.6,16.3,30.17,ENE,61,0.0,2.0,40,0.00,,,0.00,Wunderground v.1.15,2013-02-22 00:17:00,
2013-02-21 19:18:00,38.5,15.7,30.17,ENE,61,0.0,2.0,39,0.00,,,0.00,Wunderground v.1.15,2013-02-22 00:18:00,
2013-02-21 19:21:00,38.3,16.1,30.17,ENE,61,0.0,0.0,40,0.00,,,0.00,Wunderground v.1.15,2013-02-22 00:21:00,
2013-02-21 19:22:00,38.3,16.1,30.17,ENE,61,0.0,0.0,40,0.00,,,0.00,Wunderground v.1.15,2013-02-22 00:22:00,
2013-02-21 19:23:00,38.2,16.0,30.17,ENE,61,0.0,0.0,40,0.00,,,0.00,Wunderground v.1.15,2013-02-22 00:23:00,
2013-02-21 19:26:00,38.1,15.3,30.17,ENE,61,0.0,0.0,39,0.00,,,0.00,Wunderground v.1.15,2013-02-22 00:26:00,
2013-02-21 19:27:00,38.1,15.9,30.17,ENE,61,0.0,0.0,40,0.00,,,0.00,Wunderground v.1.15,2013-02-22 00:27:00,
2013-02-21 19:28:00,38.0,16.4,30.17,ENE,61,0.0,0.0,41,0.00,,,0.00,Wunderground v.1.15,2013-02-22 00:28:00,
2013-02-21 19:29:00,38.0,16.4,30.17,ENE,61,0.0,0.0,41,0.00,,,0.00,Wunderground v.1.15,2013-02-22 00:29:00,
2013-02-21 19:31:00,37.9,16.3,30.17,ENE,61,0.0,0.0,41,0.00,,,0.00,Wunderground v.1.15,2013-02-22 00:31:00,
2013-02-21 19:32:00,37.9,16.3,30.17,ENE,61,0.0,0.0,41,0.00,,,0.00,Wunderground v.1.15,2013-02-22 00:32:00,
2013-02-21 19:33:00,37.9,16.3,30.17,ENE,61,0.0,0.0,41,0.00,,,0.00,Wunderground v.1.15,2013-02-22 00:33:00,
2013-02-21 19:35:00,37.9,16.8,30.17,ENE,61,0.0,0.0,42,0.00,,,0.00,Wunderground v.1.15,2013-02-22 00:35:00,
2013-02-21 19:36:00,37.8,16.2,30.17,ENE,61,0.0,0.0,41,0.00,,,0.00,Wunderground v.1.15,2013-02-22 00:36:00,
2013-02-21 19:37:00,37.8,16.2,30.17,ENE,61,0.0,0.0,41,0.00,,,0.00,Wunderground v.1.15,2013-02-22 00:37:00,
2013-02-21 19:39:00,37.8,16.7,30.17,ENE,61,0.0,0.0,42,0.00,,,0.00,Wunderground v.1.15,2013-02-22 00:39:00,
2013-02-21 19:40:00,37.7,15.5,30.17,ENE,61,0.0,0.0,40,0.00,,,0.00,Wunderground v.1.15,2013-02-22 00:40:00,
2013-02-21 19:41:00,37.7,15.5,30.17,ENE,61,0.0,0.0,40,0.00,,,0.00,Wunderground v.1.15,2013-02-22 00:41:00,
2013-02-21 19:43:00,37.7,15.5,30.17,ENE,61,0.0,0.0,40,0.00,,,0.00,Wunderground v.1.15,2013-02-22 00:43:00,
2013-02-21 19:44:00,37.7,15.5,30.17,ENE,61,0.0,0.0,40,0.00,,,0.00,Wunderground v.1.15,2013-02-22 00:44:00,
2013-02-21 19:45:00,37.6,14.8,30.17,ENE,61,0.0,1.0,39,0.00,,,0.00,Wunderground v.1.15,2013-02-22 00:45:00,
2013-02-21 19:47:00,37.6,16.5,30.17,ENE,61,2.0,2.0,42,0.00,,,0.00,Wunderground v.1.15,2013-02-22 00:47:00,
2013-02-21 19:48:00,37.6,16.5,30.17,ENE,61,0.0,2.0,42,0.00,,,0.00,Wunderground v.1.15,2013-02-22 00:48:00,
2013-02-21 19:49:00,37.6,15.4,30.17,ENE,61,0.0,2.0,40,0.00,,,0.00,Wunderground v.1.15,2013-02-22 00:49:00,
2013-02-21 19:50:00,37.6,15.4,30.16,ENE,61,0.0,0.0,40,0.00,,,0.00,Wunderground v.1.15,2013-02-22 00:50:00,
2013-02-21 19:53:00,37.6,16.5,30.16,ENE,61,0.0,0.0,42,0.00,,,0.00,Wunderground v.1.15,2013-02-22 00:53:00,
2013-02-21 19:54:00,37.6,16.5,30.16,ENE,61,0.0,0.0,42,0.00,,,0.00,Wunderground v.1.15,2013-02-22 00:54:00,
2013-02-21 19:56:00,37.5,16.5,30.17,ENE,61,0.0,1.0,42,0.00,,,0.00,Wunderground v.1.15,2013-02-22 00:56:00,
2013-02-21 19:58:00,37.5,16.5,30.16,ENE,61,1.0,1.0,42,0.00,,,0.00,Wunderground v.1.15,2013-02-22 00:58:00,
2013-02-21 19:59:00,37.5,17.0,30.16,ENE,61,2.0,2.0,43,0.00,,,0.00,Wunderground v.1.15,2013-02-22 00:59:00,
2013-02-21 20:01:00,37.4,15.8,30.16,ENE,61,1.0,3.0,41,0.00,,,0.00,Wunderground v.1.15,2013-02-22 01:01:00,
2013-02-21 20:03:00,37.4,15.2,30.16,ENE,61,0.0,3.0,40,0.00,,,0.00,Wunderground v.1.15,2013-02-22 01:03:00,
2013-02-21 20:04:00,37.4,15.2,30.16,ENE,61,0.0,3.0,40,0.00,,,0.00,Wunderground v.1.15,2013-02-22 01:04:00,
2013-02-21 20:05:00,37.4,15.2,30.16,ENE,61,0.0,3.0,40,0.00,,,0.00,Wunderground v.1.15,2013-02-22 01:05:00,
2013-02-21 20:06:00,37.4,15.2,30.16,ENE,61,0.0,3.0,40,0.00,,,0.00,Wunderground v.1.15,2013-02-22 01:06:00,
2013-02-21 20:09:00,37.4,15.8,30.16,ENE,61,1.0,3.0,41,0.00,,,0.00,Wunderground v.1.15,2013-02-22 01:09:00,
2013-02-21 20:10:00,37.3,15.7,30.16,ENE,61,2.0,3.0,41,0.00,,,0.00,Wunderground v.1.15,2013-02-22 01:10:00,
2013-02-21 20:11:00,37.3,15.7,30.15,ENE,61,2.0,3.0,41,0.00,,,0.00,Wunderground v.1.15,2013-02-22 01:11:00,
2013-02-21 20:14:00,37.3,15.7,30.15,ENE,61,2.0,3.0,41,0.00,,,0.00,Wunderground v.1.15,2013-02-22 01:14:00,
2013-02-21 20:15:00,37.3,15.2,30.15,ENE,61,0.0,3.0,40,0.00,,,0.00,Wunderground v.1.15,2013-02-22 01:15:00,
2013-02-21 20:17:00,37.3,15.2,30.15,ENE,61,1.0,3.0,40,0.00,,,0.00,Wunderground v.1.15,2013-02-22 01:17:00,
2013-02-21 20:19:00,37.3,15.2,30.15,ENE,61,0.0,3.0,40,0.00,,,0.00,Wunderground v.1.15,2013-02-22 01:19:00,
2013-02-21 20:20:00,37.2,15.1,30.15,ENE,61,0.0,1.0,40,0.00,,,0.00,Wunderground v.1.15,2013-02-22 01:20:00,
2013-02-21 20:22:00,37.3,14.0,30.15,ENE,61,0.0,2.0,39,0.00,,,0.00,weatherlink.com 1.10,2013-02-22 01:22:00,
2013-02-21 20:24:00,37.3,14.6,30.16,ENE,61,0.0,1.0,39,0.00,,,0.00,Wunderground v.1.15,2013-02-22 01:24:00,
2013-02-21 20:25:00,37.3,14.6,30.16,ENE,61,1.0,1.0,39,0.00,,,0.00,Wunderground v.1.15,2013-02-22 01:25:00,
2013-02-21 20:28:00,37.4,14.1,30.16,ENE,61,0.0,1.0,38,0.00,,,0.00,Wunderground v.1.15,2013-02-22 01:28:00,
2013-02-21 20:30:00,37.5,14.2,30.16,ENE,61,0.0,0.0,38,0.00,,,0.00,Wunderground v.1.15,2013-02-22 01:30:00,
2013-02-21 20:31:00,37.5,14.2,30.16,ENE,61,0.0,0.0,38,0.00,,,0.00,Wunderground v.1.15,2013-02-22 01:31:00,
2013-02-21 20:33:00,37.5,14.8,30.16,ENE,61,0.0,0.0,39,0.00,,,0.00,Wunderground v.1.15,2013-02-22 01:33:00,
2013-02-21 20:35:00,37.6,15.4,30.16,NE,53,2.0,2.0,40,0.00,,,0.00,Wunderground v.1.15,2013-02-22 01:35:00,
2013-02-21 20:36:00,37.6,15.4,30.16,NW,315,0.0,2.0,40,0.00,,,0.00,Wunderground v.1.15,2013-02-22 01:36:00,
2013-02-21 20:38:00,37.5,15.9,30.17,NW,314,0.0,2.0,41,0.00,,,0.00,Wunderground v.1.15,2013-02-22 01:38:00,
2013-02-21 20:40:00,37.5,16.5,30.18,WSW,238,1.0,2.0,42,0.00,,,0.00,Wunderground v.1.15,2013-02-22 01:40:00,
2013-02-21 20:41:00,37.4,16.9,30.18,SW,233,1.0,3.0,43,0.00,,,0.00,Wunderground v.1.15,2013-02-22 01:41:00,
2013-02-21 20:42:00,37.4,16.9,30.18,SW,233,0.0,3.0,43,0.00,,,0.00,Wunderground v.1.15,2013-02-22 01:42:00,
2013-02-21 20:43:00,37.3,16.8,30.18,SW,234,1.0,3.0,43,0.00,,,0.00,Wunderground v.1.15,2013-02-22 01:43:00,
2013-02-21 20:46:00,37.1,17.7,30.17,SW,215,1.0,3.0,45,0.00,,,0.00,Wunderground v.1.15,2013-02-22 01:46:00,
2013-02-21 20:48:00,37.0,17.1,30.16,ENE,65,4.0,4.0,44,0.00,,,0.00,Wunderground v.1.15,2013-02-22 01:48:00,
2013-02-21 20:51:00,36.9,15.4,30.16,SSE,166,1.0,2.0,41,0.00,,,0.00,Wunderground v.1.15,2013-02-22 01:51:00,
2013-02-21 20:53:00,37.0,14.9,30.16,SE,141,0.0,2.0,40,0.00,,,0.00,Wunderground v.1.15,2013-02-22 01:53:00,
2013-02-21 20:54:00,37.0,14.9,30.16,ESE,106,0.0,5.0,40,0.00,,,0.00,Wunderground v.1.15,2013-02-22 01:54:00,
2013-02-21 20:56:00,37.2,14.5,30.15,East,88,3.0,5.0,39,0.00,,,0.00,Wunderground v.1.15,2013-02-22 01:56:00,
2013-02-21 20:58:00,37.3,14.6,30.15,ENE,63,2.0,5.0,39,0.00,,,0.00,Wunderground v.1.15,2013-02-22 01:58:00,
2013-02-21 20:59:00,37.4,14.1,30.16,ENE,76,0.0,5.0,38,0.00,,,0.00,Wunderground v.1.15,2013-02-22 01:59:00,
2013-02-21 21:01:00,37.6,13.6,30.16,SSE,165,2.0,2.0,37,0.00,,,0.00,Wunderground v.1.15,2013-02-22 02:01:00,
2013-02-21 21:03:00,37.7,13.7,30.16,East,85,6.0,7.0,37,0.00,,,0.00,Wunderground v.1.15,2013-02-22 02:03:00,
2013-02-21 21:04:00,37.9,13.9,30.16,East,98,5.0,7.0,37,0.00,,,0.00,Wunderground v.1.15,2013-02-22 02:04:00,
2013-02-21 21:07:00,38.1,14.1,30.17,East,101,2.0,7.0,37,0.00,,,0.00,Wunderground v.1.15,2013-02-22 02:07:00,
2013-02-21 21:09:00,38.3,14.3,30.17,ESE,117,5.0,7.0,37,0.00,,,0.00,Wunderground v.1.15,2013-02-22 02:09:00,
2013-02-21 21:12:00,38.5,14.4,30.16,East,85,0.0,9.0,37,0.00,,,0.00,Wunderground v.1.15,2013-02-22 02:12:00,
2013-02-21 21:14:00,38.6,14.5,30.16,East,93,3.0,9.0,37,0.00,,,0.00,Wunderground v.1.15,2013-02-22 02:14:00,
2013-02-21 21:15:00,38.6,14.5,30.17,NE,45,2.0,9.0,37,0.00,,,0.00,Wunderground v.1.15,2013-02-22 02:15:00,
2013-02-21 21:17:00,38.7,14.6,30.17,ENE,78,4.0,9.0,37,0.00,,,0.00,Wunderground v.1.15,2013-02-22 02:17:00,
2013-02-21 21:19:00,38.7,15.2,30.17,ESE,112,3.0,9.0,38,0.00,,,0.00,Wunderground v.1.15,2013-02-22 02:19:00,
2013-02-21 21:20:00,38.7,15.2,30.17,ESE,117,3.0,4.0,38,0.00,,,0.00,Wunderground v.1.15,2013-02-22 02:20:00,
2013-02-21 21:22:00,38.7,15.2,30.17,SE,142,2.0,4.0,38,0.00,,,0.00,Wunderground v.1.15,2013-02-22 02:22:00,
2013-02-21 21:24:00,38.7,15.2,30.17,SE,129,1.0,4.0,38,0.00,,,0.00,Wunderground v.1.15,2013-02-22 02:24:00,
2013-02-21 21:25:00,38.7,15.2,30.18,SE,129,0.0,4.0,38,0.00,,,0.00,Wunderground v.1.15,2013-02-22 02:25:00,
2013-02-21 21:28:00,38.6,15.1,30.18,South,175,3.0,4.0,38,0.00,,,0.00,Wunderground v.1.15,2013-02-22 02:28:00,
2013-02-21 21:29:00,38.6,15.1,30.18,South,173,3.0,4.0,38,0.00,,,0.00,Wunderground v.1.15,2013-02-22 02:29:00,
2013-02-21 21:30:00,38.6,15.7,30.19,South,173,0.0,2.0,39,0.00,,,0.00,Wunderground v.1.15,2013-02-22 02:30:00,
2013-02-21 21:31:00,38.6,15.7,30.19,South,173,0.0,2.0,39,0.00,,,0.00,Wunderground v.1.15,2013-02-22 02:31:00,
2013-02-21 21:33:00,38.6,15.7,30.18,SSE,148,1.0,4.0,39,0.00,,,0.00,Wunderground v.1.15,2013-02-22 02:33:00,
2013-02-21 21:34:00,38.5,15.1,30.18,SSE,151,1.0,4.0,38,0.00,,,0.00,Wunderground v.1.15,2013-02-22 02:34:00,
2013-02-21 21:35:00,38.5,15.1,30.18,South,181,1.0,4.0,38,0.00,,,0.00,Wunderground v.1.15,2013-02-22 02:35:00,
2013-02-21 21:36:00,38.5,15.1,30.18,SE,140,3.0,4.0,38,0.00,,,0.00,Wunderground v.1.15,2013-02-22 02:36:00,
2013-02-21 21:38:00,38.5,15.1,30.19,West,259,2.0,4.0,38,0.00,,,0.00,Wunderground v.1.15,2013-02-22 02:38:00,
2013-02-21 21:39:00,38.5,15.1,30.18,South,184,1.0,4.0,38,0.00,,,0.00,Wunderground v.1.15,2013-02-22 02:39:00,
2013-02-21 21:40:00,38.5,15.7,30.18,South,184,2.0,2.0,39,0.00,,,0.00,Wunderground v.1.15,2013-02-22 02:40:00,
2013-02-21 21:41:00,38.4,15.6,30.19,South,185,2.0,2.0,39,0.00,,,0.00,Wunderground v.1.15,2013-02-22 02:41:00,
2013-02-21 21:43:00,38.4,15.6,30.19,South,185,0.0,3.0,39,0.00,,,0.00,Wunderground v.1.15,2013-02-22 02:43:00,
2013-02-21 21:45:00,38.4,15.6,30.19,South,183,0.0,3.0,39,0.00,,,0.00,Wunderground v.1.15,2013-02-22 02:45:00,
2013-02-21 21:46:00,38.4,15.6,30.19,South,183,0.0,3.0,39,0.00,,,0.00,Wunderground v.1.15,2013-02-22 02:46:00,
2013-02-21 21:48:00,38.4,15.6,30.19,South,169,2.0,4.0,39,0.00,,,0.00,Wunderground v.1.15,2013-02-22 02:48:00,
2013-02-21 21:50:00,38.3,15.5,30.19,SSE,162,3.0,3.0,39,0.00,,,0.00,Wunderground v.1.15,2013-02-22 02:50:00,
2013-02-21 21:51:00,38.3,15.5,30.19,SSE,166,1.0,3.0,39,0.00,,,0.00,Wunderground v.1.15,2013-02-22 02:51:00,
2013-02-21 21:52:00,38.3,15.5,30.19,SSE,165,2.0,3.0,39,0.00,,,0.00,Wunderground v.1.15,2013-02-22 02:52:00,
2013-02-21 21:53:00,38.3,16.1,30.19,South,180,3.0,3.0,40,0.00,,,0.00,Wunderground v.1.15,2013-02-22 02:53:00,
2013-02-21 21:55:00,38.2,16.0,30.20,SSE,165,2.0,4.0,40,0.00,,,0.00,Wunderground v.1.15,2013-02-22 02:55:00,
2013-02-21 21:56:00,38.2,16.0,30.20,SSE,155,2.0,4.0,40,0.00,,,0.00,Wunderground v.1.15,2013-02-22 02:56:00,
2013-02-21 21:58:00,38.2,16.5,30.19,SSE,159,2.0,4.0,41,0.00,,,0.00,Wunderground v.1.15,2013-02-22 02:58:00,
2013-02-21 21:59:00,38.1,15.3,30.19,SE,136,2.0,4.0,39,0.00,,,0.00,Wunderground v.1.15,2013-02-22 02:59:00,
2013-02-21 22:00:00,38.1,15.3,30.19,ESE,104,0.0,4.0,39,0.00,,,0.00,Wunderground v.1.15,2013-02-22 03:00:00,
2013-02-21 22:01:00,38.2,15.4,30.19,ESE,104,0.0,4.0,39,0.00,,,0.00,Wunderground v.1.15,2013-02-22 03:01:00,
2013-02-21 22:03:00,38.2,15.4,30.19,SE,140,0.0,4.0,39,0.00,,,0.00,Wunderground v.1.15,2013-02-22 03:03:00,
2013-02-21 22:05:00,38.2,15.4,30.19,ESE,113,2.0,4.0,39,0.00,,,0.00,Wunderground v.1.15,2013-02-22 03:05:00,
2013-02-21 22:06:00,38.2,15.4,30.19,East,82,3.0,4.0,39,0.00,,,0.00,Wunderground v.1.15,2013-02-22 03:06:00,
2013-02-21 22:08:00,38.2,15.4,30.19,SE,129,3.0,5.0,39,0.00,,,0.00,Wunderground v.1.15,2013-02-22 03:08:00,
2013-02-21 22:11:00,38.2,15.4,30.19,SSE,151,3.0,4.0,39,0.00,,,0.00,Wunderground v.1.15,2013-02-22 03:11:00,
2013-02-21 22:13:00,38.2,15.4,30.19,SSE,160,2.0,5.0,39,0.00,,,0.00,Wunderground v.1.15,2013-02-22 03:13:00,
2013-02-21 22:16:00,38.2,15.4,30.20,ESE,117,3.0,5.0,39,0.00,,,0.00,Wunderground v.1.15,2013-02-22 03:16:00,
2013-02-21 22:17:00,38.2,15.4,30.19,ENE,76,3.0,5.0,39,0.00,,,0.00,Wunderground v.1.15,2013-02-22 03:17:00,
2013-02-21 22:18:00,38.2,15.4,30.19,ENE,65,5.0,7.0,39,0.00,,,0.00,Wunderground v.1.15,2013-02-22 03:18:00,
2013-02-21 22:21:00,38.1,15.3,30.18,NNW,342,3.0,6.0,39,0.00,,,0.00,Wunderground v.1.15,2013-02-22 03:21:00,
2013-02-21 22:22:00,38.1,15.3,30.18,ESE,107,3.0,6.0,39,0.00,,,0.00,Wunderground v.1.15,2013-02-22 03:22:00,
2013-02-21 22:24:00,38.0,15.2,30.18,East,82,6.0,8.0,39,0.00,,,0.00,Wunderground v.1.15,2013-02-22 03:24:00,
2013-02-21 22:27:00,38.0,15.2,30.18,East,94,1.0,8.0,39,0.00,,,0.00,Wunderground v.1.15,2013-02-22 03:27:00,
2013-02-21 22:28:00,38.0,15.2,30.18,SE,142,4.0,8.0,39,0.00,,,0.00,Wunderground v.1.15,2013-02-22 03:28:00,
2013-02-21 22:29:00,38.0,15.2,30.18,SE,132,4.0,8.0,39,0.00,,,0.00,Wunderground v.1.15,2013-02-22 03:29:00,
2013-02-21 22:32:00,37.9,15.1,30.18,ENE,65,3.0,4.0,39,0.00,,,0.00,Wunderground v.1.15,2013-02-22 03:32:00,
2013-02-21 22:33:00,37.9,15.1,30.19,East,86,1.0,4.0,39,0.00,,,0.00,Wunderground v.1.15,2013-02-22 03:33:00,
2013-02-21 22:34:00,37.9,15.1,30.18,East,90,5.0,5.0,39,0.00,,,0.00,Wunderground v.1.15,2013-02-22 03:34:00,
2013-02-21 22:37:00,37.8,15.6,30.19,SE,145,3.0,7.0,40,0.00,,,0.00,Wunderground v.1.15,2013-02-22 03:37:00,
2013-02-21 22:38:00,37.8,15.6,30.19,ESE,118,2.0,7.0,40,0.00,,,0.00,Wunderground v.1.15,2013-02-22 03:38:00,
2013-02-21 22:39:00,37.8,15.6,30.19,ESE,119,1.0,7.0,40,0.00,,,0.00,Wunderground v.1.15,2013-02-22 03:39:00,
2013-02-21 22:42:00,37.8,15.6,30.19,ESE,111,2.0,5.0,40,0.00,,,0.00,Wunderground v.1.15,2013-02-22 03:42:00,
2013-02-21 22:44:00,37.8,15.6,30.19,ESE,113,1.0,5.0,40,0.00,,,0.00,Wunderground v.1.15,2013-02-22 03:44:00,
2013-02-21 22:48:00,37.7,15.5,30.19,SE,145,2.0,5.0,40,0.00,,,0.00,Wunderground v.1.15,2013-02-22 03:48:00,
2013-02-21 22:49:00,37.7,15.5,30.19,SE,145,0.0,5.0,40,0.00,,,0.00,Wunderground v.1.15,2013-02-22 03:49:00,
2013-02-21 22:50:00,37.7,15.5,30.19,NE,53,4.0,4.0,40,0.00,,,0.00,Wunderground v.1.15,2013-02-22 03:50:00,
2013-02-21 22:53:00,37.7,15.5,30.19,East,90,0.0,7.0,40,0.00,,,0.00,Wunderground v.1.15,2013-02-22 03:53:00,
2013-02-21 22:54:00,37.7,15.5,30.19,East,88,1.0,7.0,40,0.00,,,0.00,Wunderground v.1.15,2013-02-22 03:54:00,
2013-02-21 22:55:00,37.7,15.5,30.19,East,93,2.0,7.0,40,0.00,,,0.00,Wunderground v.1.15,2013-02-22 03:55:00,
2013-02-21 22:58:00,37.6,15.4,30.20,ESE,103,0.0,7.0,40,0.00,,,0.00,Wunderground v.1.15,2013-02-22 03:58:00,
2013-02-21 22:59:00,37.6,15.4,30.20,ESE,103,0.0,7.0,40,0.00,,,0.00,Wunderground v.1.15,2013-02-22 03:59:00,
2013-02-21 23:00:00,37.6,15.4,30.20,ESE,103,0.0,2.0,40,0.00,,,0.00,Wunderground v.1.15,2013-02-22 04:00:00,
2013-02-21 23:04:00,37.6,15.4,30.20,East,96,3.0,5.0,40,0.00,,,0.00,Wunderground v.1.15,2013-02-22 04:04:00,
2013-02-21 23:05:00,37.6,15.4,30.20,East,93,5.0,5.0,40,0.00,,,0.00,Wunderground v.1.15,2013-02-22 04:05:00,
2013-02-21 23:06:00,37.6,15.4,30.19,East,93,3.0,5.0,40,0.00,,,0.00,Wunderground v.1.15,2013-02-22 04:06:00,
2013-02-21 23:09:00,37.5,15.3,30.20,East,94,1.0,5.0,40,0.00,,,0.00,Wunderground v.1.15,2013-02-22 04:09:00,
2013-02-21 23:10:00,37.5,15.3,30.20,ESE,105,3.0,4.0,40,0.00,,,0.00,Wunderground v.1.15,2013-02-22 04:10:00,
2013-02-21 23:11:00,37.5,15.3,30.20,ENE,61,1.0,5.0,40,0.00,,,0.00,Wunderground v.1.15,2013-02-22 04:11:00,
2013-02-21 23:14:00,37.5,15.3,30.20,East,88,3.0,5.0,40,0.00,,,0.00,Wunderground v.1.15,2013-02-22 04:14:00,
2013-02-21 23:15:00,37.5,15.3,30.21,ENE,71,4.0,6.0,40,0.00,,,0.00,Wunderground v.1.15,2013-02-22 04:15:00,
2013-02-21 23:16:00,37.5,15.3,30.21,ENE,69,0.0,6.0,40,0.00,,,0.00,Wunderground v.1.15,2013-02-22 04:16:00,
2013-02-21 23:19:00,37.5,15.3,30.21,SE,126,1.0,6.0,40,0.00,,,0.00,Wunderground v.1.15,2013-02-22 04:19:00,
2013-02-21 23:20:00,37.5,15.3,30.22,South,174,1.0,2.0,40,0.00,,,0.00,Wunderground v.1.15,2013-02-22 04:20:00,
2013-02-21 23:21:00,37.5,15.3,30.22,SE,138,1.0,2.0,40,0.00,,,0.00,Wunderground v.1.15,2013-02-22 04:21:00,
2013-02-21 23:22:00,37.5,15.3,30.21,East,90,3.0,5.0,40,0.00,,,0.00,Wunderground v.1.15,2013-02-22 04:22:00,
2013-02-21 23:24:00,37.5,15.3,30.21,SE,136,5.0,6.0,40,0.00,,,0.00,Wunderground v.1.15,2013-02-22 04:24:00,
2013-02-21 23:25:00,37.5,15.3,30.22,East,82,0.0,6.0,40,0.00,,,0.00,Wunderground v.1.15,2013-02-22 04:25:00,
2013-02-21 23:26:00,37.5,15.3,30.22,East,82,0.0,6.0,40,0.00,,,0.00,Wunderground v.1.15,2013-02-22 04:26:00,
2013-02-21 23:27:00,37.5,15.3,30.22,SSE,156,5.0,6.0,40,0.00,,,0.00,Wunderground v.1.15,2013-02-22 04:27:00,
2013-02-21 23:29:00,37.5,15.3,30.22,ESE,121,2.0,6.0,40,0.00,,,0.00,Wunderground v.1.15,2013-02-22 04:29:00,
2013-02-21 23:31:00,37.5,15.3,30.22,South,188,3.0,4.0,40,0.00,,,0.00,Wunderground v.1.15,2013-02-22 04:31:00,
2013-02-21 23:32:00,37.5,15.3,30.22,SSE,152,4.0,7.0,40,0.00,,,0.00,Wunderground v.1.15,2013-02-22 04:32:00,
2013-02-21 23:35:00,37.5,15.3,30.22,South,178,1.0,7.0,40,0.00,,,0.00,Wunderground v.1.15,2013-02-22 04:35:00,
2013-02-21 23:37:00,37.5,15.3,30.22,SSW,204,3.0,7.0,40,0.00,,,0.00,Wunderground v.1.15,2013-02-22 04:37:00,
2013-02-21 23:40:00,37.4,15.2,30.22,SSE,161,4.0,4.0,40,0.00,,,0.00,Wunderground v.1.15,2013-02-22 04:40:00,
2013-02-21 23:42:00,37.4,15.2,30.22,SE,140,4.0,7.0,40,0.00,,,0.00,Wunderground v.1.15,2013-02-22 04:42:00,
2013-02-21 23:45:00,37.5,15.3,30.22,South,170,5.0,7.0,40,0.00,,,0.00,Wunderground v.1.15,2013-02-22 04:45:00,
2013-02-21 23:47:00,37.5,15.3,30.22,SSE,154,4.0,7.0,40,0.00,,,0.00,Wunderground v.1.15,2013-02-22 04:47:00,
2013-02-21 23:48:00,37.4,15.2,30.22,South,170,5.0,7.0,40,0.00,,,0.00,Wunderground v.1.15,2013-02-22 04:48:00,
2013-02-21 23:50:00,37.5,15.3,30.22,SE,128,4.0,4.0,40,0.00,,,0.00,Wunderground v.1.15,2013-02-22 04:50:00,
2013-02-21 23:53:00,37.5,15.3,30.22,SE,139,7.0,7.0,40,0.00,,,0.00,Wunderground v.1.15,2013-02-22 04:53:00,
2013-02-21 23:55:00,37.5,15.3,30.22,SSE,147,4.0,8.0,40,0.00,,,0.00,Wunderground v.1.15,2013-02-22 04:55:00,
2013-02-21 23:58:00,37.5,15.3,30.23,SSE,149,5.0,8.0,40,0.00,,,0.00,Wunderground v.1.15,2013-02-22 04:58:00,
2013-02-21 23:59:00,37.4,15.2,30.23,SE,139,4.0,8.0,40,0.00,,,0.00,Wunderground v.1.15,2013-02-22 04:59:00,